| time (UTC) | temp C | wind direction | speed KPH | gust KPH | rain 1hr cm | rain 24hr cm | rain mn cm | humidity % | barometer mb |
| 20260506024931 | 8 | 98 | 0.0 | 3.2 | 0.00 | 0.03 | 0.00 | 89 | 1005.7 |
| 20260506024831 | 8 | 98 | 0.0 | 3.2 | 0.00 | 0.03 | 0.00 | 89 | 1005.7 |
| 20260506024730 | 8 | 98 | 0.0 | 3.2 | 0.00 | 0.03 | 0.00 | 89 | 1005.7 |
| 20260506024629 | 8 | 98 | 0.0 | 3.2 | 0.00 | 0.03 | 0.00 | 89 | 1005.8 |
| 20260506024529 | 8 | 99 | 0.0 | 3.2 | 0.00 | 0.03 | 0.00 | 89 | 1005.8 |
| 20260506024429 | 8 | 99 | 1.6 | 3.2 | 0.00 | 0.03 | 0.00 | 89 | 1005.8 |
| 20260506024329 | 8 | 98 | 1.6 | 3.2 | 0.00 | 0.03 | 0.00 | 89 | 1005.8 |
| 20260506024226 | 8 | 98 | 1.6 | 3.2 | 0.00 | 0.03 | 0.00 | 89 | 1005.8 |
| 20260506024126 | 8 | 99 | 1.6 | 3.2 | 0.00 | 0.03 | 0.00 | 89 | 1005.8 |
| 20260506024024 | 8 | 98 | 1.6 | 4.8 | 0.00 | 0.03 | 0.00 | 89 | 1005.8 |
| 20260506023925 | 8 | 98 | 1.6 | 4.8 | 0.00 | 0.03 | 0.00 | 88 | 1005.8 |
| 20260506023825 | 8 | 109 | 1.6 | 4.8 | 0.00 | 0.03 | 0.00 | 89 | 1005.8 |
| 20260506023735 | 8 | 111 | 1.6 | 4.8 | 0.00 | 0.03 | 0.00 | 89 | 1005.9 |
| 20260506023725 | 8 | 112 | 1.6 | 4.8 | 0.00 | 0.03 | 0.00 | 89 | 1005.9 |
| 20260506023625 | 8 | 122 | 1.6 | 4.8 | 0.00 | 0.03 | 0.00 | 89 | 1005.8 |
| 20260506023524 | 8 | 126 | 1.6 | 4.8 | 0.00 | 0.03 | 0.00 | 89 | 1005.9 |
| 20260506023422 | 8 | 113 | 1.6 | 4.8 | 0.00 | 0.03 | 0.00 | 89 | 1005.9 |
| 20260506023322 | 8 | 113 | 1.6 | 4.8 | 0.00 | 0.03 | 0.00 | 90 | 1005.9 |
| 20260506023222 | 8 | 112 | 1.6 | 4.8 | 0.00 | 0.03 | 0.00 | 89 | 1005.9 |
| 20260506023123 | 8 | 113 | 1.6 | 4.8 | 0.00 | 0.03 | 0.00 | 89 | 1006.0 |
| 20260506023021 | 8 | 111 | 1.6 | 4.8 | 0.00 | 0.03 | 0.00 | 89 | 1005.9 |
| 20260506022920 | 8 | 109 | 1.6 | 4.8 | 0.00 | 0.03 | 0.00 | 89 | 1006.0 |
| 20260506022820 | 8 | 109 | 1.6 | 3.2 | 0.00 | 0.03 | 0.00 | 90 | 1006.0 |
| 20260506022720 | 8 | 111 | 1.6 | 3.2 | 0.00 | 0.03 | 0.00 | 90 | 1005.9 |
| 20260506022620 | 8 | 111 | 1.6 | 3.2 | 0.00 | 0.03 | 0.00 | 90 | 1006.0 |
| 20260506022519 | 8 | 111 | 1.6 | 3.2 | 0.00 | 0.03 | 0.00 | 90 | 1006.0 |
| 20260506022419 | 8 | 111 | 1.6 | 3.2 | 0.00 | 0.03 | 0.00 | 90 | 1006.0 |
| 20260506022315 | 8 | 111 | 1.6 | 3.2 | 0.00 | 0.03 | 0.00 | 90 | 1006.0 |
| 20260506022215 | 8 | 111 | 0.0 | 3.2 | 0.00 | 0.03 | 0.00 | 90 | 1006.0 |
| 20260506022114 | 8 | 111 | 0.0 | 3.2 | 0.00 | 0.03 | 0.00 | 90 | 1005.9 |
| 20260506022014 | 8 | 111 | 0.0 | 3.2 | 0.00 | 0.03 | 0.00 | 90 | 1005.9 |
| 20260506021949 | 7 | 111 | 0.0 | 1.6 | 0.00 | 0.03 | 0.00 | 90 | 1005.7 |
| 20260506021944 | 8 | 111 | 0.0 | 3.2 | 0.00 | 0.03 | 0.00 | 90 | 1005.8 |
| 20260506021940 | 8 | 111 | 0.0 | 3.2 | 0.00 | 0.03 | 0.00 | 90 | 1005.8 |
| 20260506021715 | 8 | 111 | 0.0 | 1.6 | 0.00 | 0.03 | 0.00 | 90 | 1005.7 |
| 20260506021614 | 8 | 111 | 0.0 | 1.6 | 0.00 | 0.03 | 0.00 | 90 | 1005.7 |
| 20260506021514 | 8 | 111 | 0.0 | 1.6 | 0.00 | 0.03 | 0.00 | 90 | 1005.7 |
| 20260506021414 | 8 | 111 | 0.0 | 3.2 | 0.00 | 0.03 | 0.00 | 90 | 1005.7 |
| 20260506021314 | 8 | 111 | 0.0 | 3.2 | 0.00 | 0.03 | 0.00 | 90 | 1005.7 |
| 20260506021215 | 8 | 111 | 0.0 | 3.2 | 0.00 | 0.03 | 0.00 | 90 | 1005.7 |
| 20260506021115 | 8 | 111 | 0.0 | 3.2 | 0.00 | 0.03 | 0.00 | 90 | 1005.8 |
| 20260506021015 | 8 | 111 | 0.0 | 3.2 | 0.00 | 0.03 | 0.00 | 90 | 1005.8 |
| 20260506020953 | 8 | 109 | 0.0 | 3.2 | 0.00 | 0.03 | 0.00 | 90 | 1005.8 |
| 20260506020944 | 8 | 111 | 0.0 | 3.2 | 0.00 | 0.03 | 0.00 | 90 | 1005.8 |
| 20260506020940 | 8 | 109 | 0.0 | 3.2 | 0.00 | 0.03 | 0.00 | 90 | 1005.8 |
| 20260506020715 | 8 | 108 | 0.0 | 3.2 | 0.00 | 0.03 | 0.00 | 90 | 1005.8 |
| 20260506020615 | 8 | 108 | 0.0 | 3.2 | 0.00 | 0.03 | 0.00 | 90 | 1005.9 |
| 20260506020515 | 8 | 108 | 0.0 | 3.2 | 0.00 | 0.03 | 0.00 | 90 | 1005.9 |
| 20260506020410 | 8 | 108 | 0.0 | 3.2 | 0.00 | 0.03 | 0.00 | 90 | 1005.9 |
| 20260506020310 | 8 | 108 | 0.0 | 3.2 | 0.00 | 0.03 | 0.00 | 90 | 1005.9 |
| 20260506020211 | 8 | 108 | 0.0 | 3.2 | 0.00 | 0.03 | 0.00 | 90 | 1005.9 |
| 20260506020111 | 8 | 109 | 0.0 | 3.2 | 0.00 | 0.03 | 0.00 | 90 | 1006.0 |
| 20260506020011 | 8 | 109 | 0.0 | 3.2 | 0.00 | 0.03 | 0.00 | 89 | 1006.0 |
| 20260506015910 | 8 | 109 | 0.0 | 3.2 | 0.00 | 0.03 | 0.00 | 89 | 1006.0 |
| 20260506015810 | 8 | 107 | 1.6 | 4.8 | 0.00 | 0.03 | 0.00 | 89 | 1006.0 |
| 20260506015711 | 8 | 107 | 1.6 | 4.8 | 0.00 | 0.03 | 0.00 | 89 | 1006.0 |
| 20260506015610 | 8 | 107 | 1.6 | 4.8 | 0.00 | 0.03 | 0.00 | 89 | 1006.0 |
| 20260506015510 | 8 | 107 | 1.6 | 4.8 | 0.00 | 0.03 | 0.00 | 89 | 1006.0 |
| 20260506015411 | 8 | 107 | 1.6 | 4.8 | 0.00 | 0.03 | 0.00 | 89 | 1006.1 |
| 20260506015310 | 8 | 107 | 1.6 | 4.8 | 0.00 | 0.03 | 0.00 | 90 | 1006.1 |
| 20260506015210 | 8 | 107 | 1.6 | 4.8 | 0.00 | 0.03 | 0.00 | 90 | 1006.1 |
| 20260506015111 | 8 | 107 | 1.6 | 4.8 | 0.00 | 0.03 | 0.00 | 90 | 1006.0 |
| 20260506015011 | 8 | 107 | 1.6 | 4.8 | 0.00 | 0.03 | 0.00 | 90 | 1006.0 |
| 20260506014911 | 8 | 107 | 1.6 | 4.8 | 0.00 | 0.03 | 0.00 | 90 | 1006.0 |
| 20260506014811 | 8 | 109 | 1.6 | 4.8 | 0.00 | 0.03 | 0.00 | 90 | 1006.0 |
| 20260506014729 | 8 | 109 | 1.6 | 4.8 | 0.00 | 0.03 | 0.00 | 90 | 1006.0 |
| 20260506014710 | 8 | 111 | 1.6 | 4.8 | 0.00 | 0.03 | 0.00 | 90 | 1006.0 |
| 20260506014610 | 8 | 111 | 1.6 | 4.8 | 0.00 | 0.03 | 0.00 | 90 | 1006.0 |
| 20260506014506 | 8 | 111 | 1.6 | 4.8 | 0.00 | 0.03 | 0.00 | 90 | 1005.9 |
| 20260506014456 | 8 | 115 | 0.0 | 3.2 | 0.00 | 0.03 | 0.00 | 90 | 1006.0 |
| 20260506014445 | 8 | 114 | 1.6 | 3.2 | 0.00 | 0.03 | 0.00 | 90 | 1005.9 |
| 20260506014441 | 8 | 115 | 0.0 | 3.2 | 0.00 | 0.03 | 0.00 | 90 | 1005.9 |
| 20260506014207 | 8 | 115 | 0.0 | 3.2 | 0.00 | 0.03 | 0.00 | 90 | 1006.0 |
| 20260506014106 | 8 | 115 | 0.0 | 3.2 | 0.00 | 0.03 | 0.00 | 90 | 1005.9 |
| 20260506014006 | 8 | 115 | 0.0 | 3.2 | 0.00 | 0.03 | 0.00 | 90 | 1006.0 |
| 20260506013957 | 8 | 115 | 0.0 | 3.2 | 0.00 | 0.03 | 0.00 | 89 | 1005.9 |
| 20260506013946 | 8 | 115 | 0.0 | 3.2 | 0.00 | 0.03 | 0.00 | 90 | 1005.9 |
| 20260506013942 | 8 | 115 | 0.0 | 3.2 | 0.00 | 0.03 | 0.00 | 89 | 1005.9 |
| 20260506013707 | 8 | 115 | 0.0 | 3.2 | 0.00 | 0.03 | 0.00 | 89 | 1005.9 |
| 20260506013607 | 8 | 115 | 0.0 | 3.2 | 0.00 | 0.03 | 0.00 | 89 | 1005.9 |
| 20260506013507 | 8 | 115 | 0.0 | 3.2 | 0.00 | 0.03 | 0.00 | 89 | 1005.9 |
| 20260506013455 | 8 | 115 | 0.0 | 3.2 | 0.00 | 0.03 | 0.00 | 89 | 1005.8 |
| 20260506013445 | 8 | 115 | 0.0 | 3.2 | 0.00 | 0.03 | 0.00 | 89 | 1005.9 |
| 20260506013441 | 8 | 115 | 0.0 | 3.2 | 0.00 | 0.03 | 0.00 | 89 | 1005.9 |
| 20260506013206 | 8 | 115 | 0.0 | 3.2 | 0.00 | 0.03 | 0.00 | 89 | 1005.8 |
| 20260506013106 | 8 | 115 | 1.6 | 3.2 | 0.00 | 0.03 | 0.00 | 89 | 1005.9 |
| 20260506013006 | 8 | 115 | 1.6 | 3.2 | 0.00 | 0.03 | 0.00 | 89 | 1005.9 |
| 20260506012907 | 8 | 115 | 1.6 | 3.2 | 0.00 | 0.03 | 0.00 | 89 | 1006.0 |
| 20260506012807 | 8 | 115 | 1.6 | 3.2 | 0.00 | 0.03 | 0.00 | 89 | 1006.0 |
| 20260506012707 | 8 | 115 | 1.6 | 3.2 | 0.00 | 0.03 | 0.00 | 89 | 1006.0 |
| 20260506012602 | 8 | 115 | 1.6 | 3.2 | 0.00 | 0.03 | 0.00 | 89 | 1006.0 |
| 20260506012502 | 8 | 117 | 1.6 | 3.2 | 0.00 | 0.03 | 0.00 | 89 | 1006.0 |
| 20260506012453 | 8 | 117 | 1.6 | 3.2 | 0.00 | 0.03 | 0.00 | 89 | 1006.0 |
| 20260506012443 | 8 | 117 | 1.6 | 3.2 | 0.00 | 0.03 | 0.00 | 89 | 1006.1 |
| 20260506012439 | 8 | 117 | 1.6 | 3.2 | 0.00 | 0.03 | 0.00 | 89 | 1006.0 |
| 20260506012203 | 8 | 117 | 1.6 | 3.2 | 0.00 | 0.03 | 0.00 | 89 | 1006.0 |
| 20260506012103 | 8 | 117 | 1.6 | 3.2 | 0.00 | 0.03 | 0.00 | 89 | 1006.0 |
| 20260506012003 | 8 | 117 | 1.6 | 4.8 | 0.00 | 0.03 | 0.00 | 88 | 1006.1 |
| 20260506011902 | 8 | 117 | 1.6 | 6.4 | 0.00 | 0.03 | 0.00 | 88 | 1006.1 |
| 20260506011801 | 8 | 117 | 1.6 | 6.4 | 0.00 | 0.03 | 0.00 | 89 | 1006.2 |
| 20260506011702 | 8 | 117 | 1.6 | 6.4 | 0.00 | 0.03 | 0.00 | 89 | 1006.1 |
| 20260506011602 | 8 | 117 | 1.6 | 6.4 | 0.00 | 0.03 | 0.00 | 89 | 1006.2 |
| 20260506011500 | 8 | 117 | 1.6 | 6.4 | 0.00 | 0.03 | 0.00 | 89 | 1006.2 |
| 20260506011401 | 8 | 117 | 1.6 | 6.4 | 0.00 | 0.03 | 0.00 | 89 | 1006.2 |
| 20260506011300 | 8 | 117 | 1.6 | 6.4 | 0.00 | 0.03 | 0.00 | 89 | 1006.2 |
| 20260506011230 | 8 | 117 | 1.6 | 6.4 | 0.00 | 0.03 | 0.00 | 89 | 1006.2 |
| 20260506011200 | 8 | 119 | 1.6 | 6.4 | 0.00 | 0.03 | 0.00 | 89 | 1006.2 |
| 20260506011100 | 8 | 119 | 1.6 | 6.4 | 0.00 | 0.03 | 0.00 | 89 | 1006.2 |
| 20260506011001 | 8 | 135 | 1.6 | 6.4 | 0.00 | 0.03 | 0.00 | 89 | 1006.3 |
| 20260506010901 | 8 | 144 | 1.6 | 4.8 | 0.00 | 0.03 | 0.00 | 90 | 1006.3 |
| 20260506010801 | 8 | 145 | 1.6 | 4.8 | 0.00 | 0.03 | 0.00 | 90 | 1006.3 |
| 20260506010729 | 8 | 145 | 1.6 | 4.8 | 0.00 | 0.03 | 0.00 | 90 | 1006.3 |
| 20260506010700 | 8 | 146 | 1.6 | 3.2 | 0.00 | 0.03 | 0.00 | 89 | 1006.3 |
| 20260506010600 | 8 | 148 | 1.6 | 3.2 | 0.00 | 0.03 | 0.00 | 89 | 1006.3 |
| 20260506010501 | 8 | 148 | 1.6 | 3.2 | 0.00 | 0.03 | 0.00 | 89 | 1006.3 |
| 20260506010400 | 8 | 148 | 1.6 | 4.8 | 0.00 | 0.03 | 0.00 | 89 | 1006.3 |
| 20260506010301 | 8 | 148 | 1.6 | 4.8 | 0.00 | 0.03 | 0.00 | 89 | 1006.2 |
| 20260506010201 | 8 | 148 | 1.6 | 4.8 | 0.00 | 0.03 | 0.00 | 89 | 1006.3 |
| 20260506010001 | 8 | 148 | 1.6 | 4.8 | 0.00 | 0.03 | 0.00 | 89 | 1006.2 |
| 20260506005900 | 8 | 148 | 1.6 | 4.8 | 0.00 | 0.03 | 0.00 | 89 | 1006.2 |
| 20260506005800 | 8 | 148 | 1.6 | 4.8 | 0.00 | 0.03 | 0.00 | 89 | 1006.2 |
| 20260506005700 | 8 | 148 | 1.6 | 4.8 | 0.00 | 0.03 | 0.00 | 89 | 1006.1 |
| 20260506005600 | 8 | 149 | 1.6 | 4.8 | 0.00 | 0.03 | 0.00 | 89 | 1006.1 |
| 20260506005501 | 8 | 148 | 1.6 | 4.8 | 0.00 | 0.03 | 0.00 | 89 | 1006.2 |
| 20260506005401 | 8 | 157 | 0.0 | 3.2 | 0.00 | 0.03 | 0.00 | 89 | 1006.2 |
| 20260506005301 | 8 | 157 | 0.0 | 3.2 | 0.00 | 0.03 | 0.00 | 89 | 1006.2 |
| 20260506005201 | 8 | 157 | 0.0 | 3.2 | 0.00 | 0.03 | 0.00 | 89 | 1006.2 |
| 20260506005100 | 8 | 157 | 0.0 | 3.2 | 0.00 | 0.03 | 0.00 | 89 | 1006.2 |
| 20260506005000 | 8 | 157 | 0.0 | 1.6 | 0.00 | 0.03 | 0.00 | 89 | 1006.2 |
| 20260506004952 | 8 | 157 | 0.0 | 3.2 | 0.00 | 0.03 | 0.00 | 88 | 1006.2 |
| 20260506004944 | 8 | 157 | 0.0 | 1.6 | 0.00 | 0.03 | 0.00 | 89 | 1006.2 |
| 20260506004940 | 8 | 157 | 0.0 | 1.6 | 0.00 | 0.03 | 0.00 | 88 | 1006.2 |
| 20260506004718 | 8 | 162 | 0.0 | 3.2 | 0.00 | 0.03 | 0.00 | 89 | 1006.2 |
| 20260506004712 | 8 | 157 | 0.0 | 3.2 | 0.00 | 0.03 | 0.00 | 88 | 1006.2 |
| 20260506004708 | 8 | 157 | 0.0 | 3.2 | 0.00 | 0.03 | 0.00 | 89 | 1006.2 |
| 20260506004704 | 8 | 157 | 0.0 | 3.2 | 0.00 | 0.03 | 0.00 | 89 | 1006.1 |
| 20260506004443 | 8 | 157 | 0.0 | 3.2 | 0.00 | 0.03 | 0.00 | 89 | 1006.1 |
| 20260506004439 | 8 | 157 | 0.0 | 3.2 | 0.00 | 0.03 | 0.00 | 89 | 1006.1 |
| 20260506004220 | 9 | 163 | 0.0 | 3.2 | 0.00 | 0.03 | 0.00 | 89 | 1006.1 |
| 20260506004213 | 9 | 162 | 0.0 | 3.2 | 0.00 | 0.03 | 0.00 | 89 | 1006.2 |
| 20260506004209 | 8 | 163 | 0.0 | 3.2 | 0.00 | 0.03 | 0.00 | 89 | 1006.1 |
| 20260506004205 | 8 | 162 | 0.0 | 3.2 | 0.00 | 0.03 | 0.00 | 89 | 1006.1 |
| 20260506003946 | 9 | 162 | 0.0 | 3.2 | 0.00 | 0.03 | 0.00 | 89 | 1006.1 |
| 20260506003942 | 9 | 162 | 0.0 | 3.2 | 0.00 | 0.03 | 0.00 | 89 | 1006.1 |
| 20260506003653 | 9 | 163 | 0.0 | 3.2 | 0.00 | 0.03 | 0.00 | 89 | 1006.1 |
| 20260506003553 | 9 | 163 | 0.0 | 3.2 | 0.00 | 0.03 | 0.00 | 88 | 1006.1 |
| 20260506003451 | 9 | 178 | 0.0 | 3.2 | 0.00 | 0.03 | 0.00 | 88 | 1006.1 |
| 20260506003443 | 9 | 178 | 0.0 | 3.2 | 0.00 | 0.03 | 0.00 | 88 | 1006.1 |
| 20260506003439 | 9 | 178 | 0.0 | 3.2 | 0.00 | 0.03 | 0.00 | 88 | 1006.1 |
| 20260506003142 | 9 | 178 | 0.0 | 3.2 | 0.00 | 0.03 | 0.00 | 88 | 1006.2 |
| 20260506003042 | 9 | 178 | 0.0 | 3.2 | 0.00 | 0.03 | 0.00 | 88 | 1006.2 |
| 20260506002941 | 9 | 178 | 1.6 | 3.2 | 0.00 | 0.03 | 0.00 | 88 | 1006.2 |
| 20260506002841 | 9 | 178 | 1.6 | 3.2 | 0.00 | 0.03 | 0.00 | 88 | 1006.2 |
| 20260506002728 | 9 | 178 | 1.6 | 3.2 | 0.00 | 0.03 | 0.00 | 88 | 1006.2 |
| 20260506002636 | 9 | 178 | 1.6 | 3.2 | 0.00 | 0.03 | 0.00 | 87 | 1006.2 |
| 20260506002536 | 9 | 178 | 1.6 | 3.2 | 0.00 | 0.03 | 0.00 | 87 | 1006.2 |
| 20260506002436 | 9 | 178 | 1.6 | 3.2 | 0.00 | 0.03 | 0.00 | 87 | 1006.2 |
| 20260506002336 | 9 | 178 | 1.6 | 3.2 | 0.00 | 0.03 | 0.00 | 88 | 1006.2 |
| 20260506002230 | 9 | 179 | 1.6 | 3.2 | 0.00 | 0.03 | 0.00 | 87 | 1006.2 |
| 20260506002133 | 9 | 179 | 1.6 | 3.2 | 0.00 | 0.03 | 0.00 | 87 | 1006.2 |
| 20260506002032 | 9 | 179 | 0.0 | 3.2 | 0.00 | 0.03 | 0.00 | 87 | 1006.2 |
| 20260506001829 | 10 | 179 | 0.0 | 3.2 | 0.00 | 0.03 | 0.00 | 87 | 1006.3 |
| 20260506001729 | 10 | 179 | 0.0 | 3.2 | 0.00 | 0.03 | 0.00 | 87 | 1006.3 |
| 20260506001629 | 10 | 179 | 0.0 | 3.2 | 0.00 | 0.03 | 0.00 | 87 | 1006.3 |
| 20260506001456 | 10 | 179 | 0.0 | 1.6 | 0.00 | 0.03 | 0.00 | 87 | 1006.4 |
| 20260506001451 | 10 | 179 | 0.0 | 3.2 | 0.00 | 0.03 | 0.00 | 87 | 1006.3 |
| 20260506001442 | 10 | 179 | 0.0 | 3.2 | 0.00 | 0.03 | 0.00 | 87 | 1006.3 |
| 20260506001228 | 10 | 179 | 0.0 | 1.6 | 0.00 | 0.03 | 0.00 | 87 | 1006.4 |
| 20260506001128 | 10 | 178 | 0.0 | 0.0 | 0.00 | 0.03 | 0.00 | 87 | 1006.4 |
| 20260506001027 | 10 | 179 | 0.0 | 0.0 | 0.00 | 0.03 | 0.00 | 87 | 1006.4 |
| 20260506000927 | 10 | 179 | 0.0 | 0.0 | 0.00 | 0.03 | 0.00 | 87 | 1006.4 |
| 20260506000826 | 10 | 178 | 0.0 | 0.0 | 0.00 | 0.03 | 0.00 | 87 | 1006.4 |
| 20260506000724 | 10 | 178 | 0.0 | 0.0 | 0.00 | 0.03 | 0.00 | 87 | 1006.4 |
| 20260506000622 | 10 | 178 | 0.0 | 0.0 | 0.00 | 0.03 | 0.00 | 87 | 1006.5 |
| 20260506000518 | 10 | 178 | 0.0 | 0.0 | 0.00 | 0.03 | 0.00 | 87 | 1006.5 |
| 20260506000417 | 10 | 178 | 0.0 | 0.0 | 0.00 | 0.03 | 0.00 | 87 | 1006.5 |
| 20260506000317 | 10 | 178 | 0.0 | 0.0 | 0.00 | 0.03 | 0.00 | 87 | 1006.7 |
| 20260506000229 | 10 | 178 | 0.0 | 1.6 | 0.00 | 0.03 | 0.00 | 87 | 1006.7 |
| 20260506000219 | 10 | 178 | 0.0 | 3.2 | 0.00 | 0.03 | 0.00 | 87 | 1006.7 |
| 20260506000115 | 10 | 178 | 0.0 | 3.2 | 0.00 | 0.03 | 0.00 | 87 | 1006.7 |
| 20260506000016 | 10 | 178 | 0.0 | 3.2 | 0.00 | 0.03 | 0.00 | 87 | 1006.7 |
| 20260505235914 | 10 | 178 | 0.0 | 3.2 | 0.00 | 0.03 | 0.00 | 87 | 1006.5 |
| 20260505235814 | 10 | 178 | 0.0 | 3.2 | 0.00 | 0.03 | 0.00 | 87 | 1006.7 |
| 20260505235712 | 10 | 178 | 0.0 | 3.2 | 0.00 | 0.03 | 0.00 | 87 | 1006.5 |
| 20260505235610 | 10 | 178 | 0.0 | 3.2 | 0.00 | 0.03 | 0.00 | 87 | 1006.5 |
| 20260505235506 | 10 | 178 | 0.0 | 3.2 | 0.00 | 0.03 | 0.00 | 87 | 1006.5 |
| 20260505235405 | 10 | 178 | 0.0 | 3.2 | 0.00 | 0.03 | 0.00 | 87 | 1006.7 |
| 20260505235305 | 10 | 178 | 0.0 | 3.2 | 0.00 | 0.03 | 0.00 | 87 | 1006.5 |
| 20260505235204 | 10 | 178 | 0.0 | 3.2 | 0.00 | 0.03 | 0.00 | 87 | 1006.7 |
| 20260505235103 | 10 | 178 | 0.0 | 3.2 | 0.00 | 0.03 | 0.00 | 87 | 1006.7 |
| 20260505235002 | 10 | 178 | 0.0 | 1.6 | 0.00 | 0.03 | 0.00 | 87 | 1006.7 |
| 20260505234951 | 10 | 178 | 0.0 | 1.6 | 0.00 | 0.03 | 0.00 | 86 | 1006.7 |
| 20260505234901 | 10 | 178 | 0.0 | 1.6 | 0.00 | 0.03 | 0.00 | 87 | 1006.5 |
| 20260505234802 | 10 | 178 | 0.0 | 1.6 | 0.00 | 0.03 | 0.00 | 87 | 1006.5 |
| 20260505234702 | 10 | 178 | 0.0 | 1.6 | 0.00 | 0.03 | 0.00 | 86 | 1006.7 |
| 20260505234602 | 10 | 178 | 0.0 | 1.6 | 0.00 | 0.03 | 0.00 | 86 | 1006.5 |
| 20260505234501 | 10 | 178 | 0.0 | 1.6 | 0.00 | 0.03 | 0.00 | 86 | 1006.7 |
| 20260505234401 | 10 | 178 | 0.0 | 1.6 | 0.00 | 0.03 | 0.00 | 86 | 1006.7 |
| 20260505234301 | 10 | 178 | 0.0 | 1.6 | 0.00 | 0.03 | 0.00 | 86 | 1006.7 |
| 20260505234201 | 10 | 178 | 0.0 | 1.6 | 0.00 | 0.03 | 0.00 | 86 | 1006.7 |
| 20260505234101 | 10 | 178 | 0.0 | 1.6 | 0.00 | 0.03 | 0.00 | 86 | 1006.7 |
| 20260505234001 | 10 | 178 | 0.0 | 1.6 | 0.00 | 0.03 | 0.00 | 86 | 1006.7 |
| 20260505233901 | 10 | 178 | 0.0 | 1.6 | 0.00 | 0.03 | 0.00 | 86 | 1006.7 |
| 20260505233801 | 10 | 178 | 0.0 | 4.8 | 0.00 | 0.03 | 0.00 | 86 | 1006.7 |
| 20260505233701 | 10 | 178 | 0.0 | 4.8 | 0.00 | 0.03 | 0.00 | 86 | 1006.7 |
| 20260505233601 | 10 | 178 | 1.6 | 4.8 | 0.00 | 0.03 | 0.00 | 86 | 1006.7 |
| 20260505233500 | 10 | 178 | 1.6 | 4.8 | 0.00 | 0.03 | 0.00 | 86 | 1006.8 |
| 20260505233401 | 10 | 178 | 1.6 | 4.8 | 0.00 | 0.03 | 0.00 | 86 | 1006.7 |
| 20260505233300 | 10 | 178 | 1.6 | 4.8 | 0.00 | 0.03 | 0.00 | 86 | 1006.8 |
| 20260505233229 | 10 | 179 | 1.6 | 4.8 | 0.00 | 0.03 | 0.00 | 86 | 1006.7 |
| 20260505233159 | 10 | 179 | 1.6 | 4.8 | 0.00 | 0.03 | 0.00 | 86 | 1006.7 |
| 20260505233059 | 10 | 179 | 1.6 | 4.8 | 0.00 | 0.03 | 0.00 | 87 | 1006.8 |
| 20260505232958 | 10 | 179 | 1.6 | 4.8 | 0.00 | 0.03 | 0.00 | 87 | 1006.8 |
| 20260505232857 | 10 | 179 | 1.6 | 4.8 | 0.00 | 0.03 | 0.00 | 87 | 1006.8 |
| 20260505232729 | 10 | 179 | 1.6 | 4.8 | 0.00 | 0.03 | 0.00 | 87 | 1006.8 |
| 20260505232656 | 10 | 179 | 1.6 | 4.8 | 0.00 | 0.03 | 0.00 | 87 | 1006.8 |
| 20260505232554 | 10 | 179 | 1.6 | 4.8 | 0.00 | 0.03 | 0.00 | 87 | 1006.8 |
| 20260505232454 | 10 | 179 | 1.6 | 4.8 | 0.00 | 0.03 | 0.00 | 87 | 1006.7 |
| 20260505232354 | 10 | 179 | 1.6 | 4.8 | 0.00 | 0.03 | 0.00 | 87 | 1006.7 |
| 20260505232254 | 10 | 179 | 1.6 | 4.8 | 0.00 | 0.03 | 0.00 | 87 | 1006.8 |
| 20260505232228 | 10 | 179 | 1.6 | 4.8 | 0.00 | 0.03 | 0.00 | 87 | 1006.7 |
| 20260505232219 | 10 | 140 | 0.0 | 4.8 | 0.00 | 0.03 | 0.00 | 87 | 1006.8 |
| 20260505232215 | 10 | 179 | 1.6 | 4.8 | 0.00 | 0.03 | 0.00 | 87 | 1006.8 |
| 20260505232211 | 10 | 179 | 1.6 | 4.8 | 0.00 | 0.03 | 0.00 | 87 | 1006.8 |
| 20260505231954 | 10 | 179 | 1.6 | 4.8 | 0.00 | 0.03 | 0.00 | 87 | 1006.8 |
| 20260505231950 | 10 | 179 | 0.0 | 4.8 | 0.00 | 0.03 | 0.00 | 87 | 1006.7 |
| 20260505231941 | 10 | 146 | 0.0 | 4.8 | 0.00 | 0.03 | 0.00 | 87 | 1006.8 |
| 20260505231654 | 10 | 140 | 0.0 | 3.2 | 0.00 | 0.03 | 0.00 | 87 | 1006.8 |
| 20260505231553 | 10 | 140 | 0.0 | 3.2 | 0.00 | 0.03 | 0.00 | 87 | 1006.7 |
| 20260505231450 | 10 | 140 | 0.0 | 3.2 | 0.00 | 0.03 | 0.00 | 87 | 1006.7 |
| 20260505231351 | 10 | 140 | 0.0 | 3.2 | 0.00 | 0.03 | 0.00 | 87 | 1006.7 |
| 20260505231229 | 10 | 139 | 0.0 | 3.2 | 0.00 | 0.03 | 0.00 | 87 | 1006.8 |
| 20260505231146 | 10 | 139 | 0.0 | 3.2 | 0.00 | 0.03 | 0.00 | 87 | 1006.8 |
| 20260505231044 | 10 | 139 | 0.0 | 3.2 | 0.00 | 0.03 | 0.00 | 87 | 1006.7 |
| 20260505230953 | 10 | 139 | 0.0 | 3.2 | 0.00 | 0.03 | 0.00 | 87 | 1006.7 |
| 20260505230949 | 10 | 135 | 0.0 | 3.2 | 0.00 | 0.03 | 0.00 | 87 | 1006.7 |
| 20260505230941 | 10 | 135 | 0.0 | 3.2 | 0.00 | 0.03 | 0.00 | 87 | 1006.7 |
| 20260505230640 | 10 | 135 | 0.0 | 3.2 | 0.00 | 0.03 | 0.00 | 87 | 1006.8 |
| 20260505230540 | 10 | 135 | 0.0 | 3.2 | 0.00 | 0.03 | 0.00 | 87 | 1006.8 |
| 20260505230452 | 10 | 135 | 0.0 | 3.2 | 0.00 | 0.03 | 0.00 | 87 | 1006.7 |
| 20260505230448 | 10 | 135 | 0.0 | 3.2 | 0.00 | 0.03 | 0.00 | 87 | 1006.8 |
| 20260505230440 | 10 | 135 | 0.0 | 3.2 | 0.00 | 0.03 | 0.00 | 87 | 1006.7 |
| 20260505230138 | 10 | 135 | 0.0 | 3.2 | 0.00 | 0.03 | 0.00 | 87 | 1006.8 |
| 20260505230038 | 10 | 135 | 0.0 | 3.2 | 0.00 | 0.03 | 0.00 | 87 | 1006.8 |
| 20260505225936 | 10 | 135 | 0.0 | 3.2 | 0.00 | 0.03 | 0.00 | 87 | 1006.8 |
| 20260505225837 | 10 | 135 | 0.0 | 3.2 | 0.00 | 0.03 | 0.00 | 87 | 1006.8 |
| 20260505225729 | 10 | 135 | 0.0 | 1.6 | 0.00 | 0.03 | 0.00 | 87 | 1006.8 |
| 20260505225632 | 10 | 135 | 0.0 | 1.6 | 0.00 | 0.03 | 0.00 | 87 | 1006.7 |
| 20260505225532 | 10 | 135 | 0.0 | 3.2 | 0.00 | 0.03 | 0.00 | 87 | 1006.7 |
| 20260505225452 | 10 | 135 | 0.0 | 3.2 | 0.00 | 0.03 | 0.00 | 87 | 1006.8 |
| 20260505225448 | 10 | 135 | 0.0 | 3.2 | 0.00 | 0.03 | 0.00 | 87 | 1006.8 |
| 20260505225440 | 10 | 135 | 0.0 | 3.2 | 0.00 | 0.03 | 0.00 | 87 | 1006.8 |
| 20260505225129 | 11 | 135 | 0.0 | 3.2 | 0.00 | 0.03 | 0.00 | 87 | 1006.8 |
| 20260505225029 | 11 | 135 | 0.0 | 3.2 | 0.00 | 0.03 | 0.00 | 87 | 1006.8 |
| 20260505224929 | 11 | 135 | 0.0 | 3.2 | 0.00 | 0.03 | 0.00 | 87 | 1006.8 |
| 20260505224829 | 11 | 135 | 0.0 | 3.2 | 0.00 | 0.03 | 0.00 | 87 | 1006.9 |
| 20260505224729 | 11 | 135 | 0.0 | 3.2 | 0.00 | 0.03 | 0.00 | 87 | 1006.9 |
| 20260505224629 | 11 | 135 | 0.0 | 3.2 | 0.00 | 0.03 | 0.00 | 87 | 1006.9 |
| 20260505224530 | 11 | 135 | 0.0 | 3.2 | 0.00 | 0.03 | 0.00 | 87 | 1006.9 |
| 20260505224452 | 11 | 135 | 0.0 | 3.2 | 0.00 | 0.03 | 0.00 | 87 | 1006.9 |
| 20260505224448 | 11 | 135 | 0.0 | 3.2 | 0.00 | 0.03 | 0.00 | 87 | 1006.9 |
| 20260505224440 | 11 | 135 | 0.0 | 3.2 | 0.00 | 0.03 | 0.00 | 87 | 1007.0 |
| 20260505224129 | 11 | 135 | 0.0 | 3.2 | 0.00 | 0.03 | 0.00 | 87 | 1007.0 |
| 20260505224029 | 11 | 135 | 0.0 | 3.2 | 0.00 | 0.03 | 0.00 | 87 | 1007.0 |
| 20260505223929 | 11 | 135 | 0.0 | 3.2 | 0.00 | 0.03 | 0.00 | 87 | 1007.0 |
| 20260505223829 | 11 | 135 | 0.0 | 1.6 | 0.00 | 0.03 | 0.00 | 87 | 1007.0 |
| 20260505223726 | 11 | 135 | 0.0 | 1.6 | 0.00 | 0.03 | 0.00 | 87 | 1007.1 |
| 20260505223629 | 11 | 135 | 0.0 | 1.6 | 0.00 | 0.03 | 0.00 | 87 | 1007.1 |
| 20260505223528 | 11 | 135 | 0.0 | 1.6 | 0.00 | 0.03 | 0.00 | 87 | 1007.0 |
| 20260505223428 | 11 | 135 | 0.0 | 1.6 | 0.00 | 0.03 | 0.00 | 87 | 1007.0 |
| 20260505223329 | 11 | 135 | 0.0 | 1.6 | 0.00 | 0.03 | 0.00 | 86 | 1007.0 |
| 20260505223226 | 11 | 135 | 0.0 | 0.0 | 0.00 | 0.03 | 0.00 | 86 | 1007.0 |
| 20260505223129 | 11 | 135 | 0.0 | 3.2 | 0.00 | 0.03 | 0.00 | 86 | 1007.0 |
| 20260505223029 | 11 | 135 | 0.0 | 3.2 | 0.00 | 0.03 | 0.00 | 86 | 1007.1 |
| 20260505222929 | 11 | 135 | 0.0 | 3.2 | 0.00 | 0.03 | 0.00 | 86 | 1007.0 |
| 20260505222829 | 11 | 135 | 0.0 | 3.2 | 0.00 | 0.03 | 0.00 | 86 | 1007.1 |
| 20260505222726 | 11 | 135 | 1.6 | 3.2 | 0.00 | 0.03 | 0.00 | 86 | 1007.1 |
| 20260505222628 | 11 | 135 | 1.6 | 4.8 | 0.00 | 0.03 | 0.00 | 86 | 1007.0 |
| 20260505222528 | 11 | 135 | 1.6 | 4.8 | 0.00 | 0.03 | 0.00 | 86 | 1007.0 |
| 20260505222428 | 11 | 135 | 1.6 | 4.8 | 0.00 | 0.03 | 0.00 | 86 | 1007.1 |
| 20260505222328 | 11 | 135 | 1.6 | 4.8 | 0.00 | 0.03 | 0.00 | 86 | 1007.0 |
| 20260505222226 | 11 | 135 | 1.6 | 4.8 | 0.00 | 0.03 | 0.00 | 86 | 1007.0 |
| 20260505222128 | 11 | 135 | 1.6 | 4.8 | 0.00 | 0.03 | 0.00 | 86 | 1007.0 |
| 20260505222026 | 11 | 135 | 1.6 | 4.8 | 0.00 | 0.03 | 0.00 | 86 | 1007.0 |
| 20260505221926 | 11 | 135 | 1.6 | 4.8 | 0.00 | 0.03 | 0.00 | 86 | 1007.0 |
| 20260505221826 | 11 | 135 | 1.6 | 4.8 | 0.00 | 0.03 | 0.00 | 86 | 1006.9 |
| 20260505221726 | 11 | 135 | 1.6 | 4.8 | 0.00 | 0.03 | 0.00 | 86 | 1006.9 |
| 20260505221626 | 11 | 136 | 1.6 | 4.8 | 0.00 | 0.03 | 0.00 | 86 | 1006.9 |
| 20260505221526 | 11 | 136 | 1.6 | 4.8 | 0.00 | 0.03 | 0.00 | 86 | 1006.9 |
| 20260505221426 | 11 | 136 | 1.6 | 4.8 | 0.00 | 0.03 | 0.00 | 86 | 1006.9 |
| 20260505221326 | 11 | 136 | 1.6 | 4.8 | 0.00 | 0.03 | 0.00 | 86 | 1006.8 |
| 20260505221226 | 11 | 136 | 1.6 | 4.8 | 0.00 | 0.03 | 0.00 | 86 | 1006.9 |
| 20260505221124 | 11 | 140 | 1.6 | 4.8 | 0.00 | 0.03 | 0.00 | 86 | 1006.9 |
| 20260505221024 | 11 | 140 | 1.6 | 6.4 | 0.00 | 0.03 | 0.00 | 86 | 1006.8 |
| 20260505220924 | 11 | 140 | 1.6 | 6.4 | 0.00 | 0.03 | 0.00 | 86 | 1006.9 |
| 20260505220822 | 11 | 140 | 3.2 | 8.0 | 0.00 | 0.03 | 0.00 | 86 | 1006.8 |
| 20260505220719 | 11 | 140 | 3.2 | 8.0 | 0.00 | 0.03 | 0.00 | 86 | 1006.9 |
| 20260505220616 | 11 | 140 | 3.2 | 8.0 | 0.00 | 0.03 | 0.00 | 86 | 1006.8 |
| 20260505220516 | 11 | 140 | 3.2 | 8.0 | 0.00 | 0.03 | 0.00 | 86 | 1006.9 |
| 20260505220416 | 11 | 140 | 3.2 | 8.0 | 0.00 | 0.03 | 0.00 | 86 | 1006.8 |
| 20260505220316 | 11 | 140 | 3.2 | 8.0 | 0.00 | 0.03 | 0.00 | 86 | 1006.7 |
| 20260505220214 | 11 | 140 | 3.2 | 8.0 | 0.00 | 0.03 | 0.00 | 86 | 1006.7 |
| 20260505220109 | 11 | 140 | 3.2 | 8.0 | 0.00 | 0.03 | 0.00 | 86 | 1006.8 |
| 20260505220009 | 11 | 138 | 3.2 | 8.0 | 0.00 | 0.03 | 0.00 | 85 | 1006.8 |
| 20260505215809 | 11 | 123 | 3.2 | 8.0 | 0.00 | 0.03 | 0.03 | 85 | 1006.8 |
| 20260505215709 | 11 | 138 | 3.2 | 8.0 | 0.00 | 0.03 | 0.03 | 85 | 1006.8 |
| 20260505215701 | 11 | 108 | 4.8 | 12.9 | 0.00 | 0.03 | 0.03 | 85 | 1006.8 |
| 20260505215645 | 11 | 111 | 3.2 | 9.7 | 0.00 | 0.03 | 0.03 | 85 | 1006.7 |
| 20260505215640 | 11 | 111 | 3.2 | 11.3 | 0.00 | 0.03 | 0.03 | 85 | 1006.8 |
| 20260505215425 | 11 | 111 | 3.2 | 12.9 | 0.00 | 0.03 | 0.03 | 85 | 1006.8 |
| 20260505215421 | 11 | 110 | 4.8 | 12.9 | 0.00 | 0.03 | 0.03 | 85 | 1006.8 |
| 20260505215413 | 11 | 108 | 4.8 | 12.9 | 0.00 | 0.03 | 0.03 | 85 | 1006.8 |
| 20260505215102 | 11 | 108 | 4.8 | 12.9 | 0.00 | 0.03 | 0.03 | 85 | 1006.8 |
| 20260505215001 | 11 | 171 | 4.8 | 12.9 | 0.00 | 0.03 | 0.03 | 85 | 1006.8 |
| 20260505214924 | 11 | 194 | 4.8 | 12.9 | 0.00 | 0.03 | 0.03 | 85 | 1006.9 |
| 20260505214920 | 11 | 208 | 6.4 | 12.9 | 0.00 | 0.03 | 0.03 | 85 | 1006.9 |
| 20260505214912 | 11 | 208 | 4.8 | 12.9 | 0.00 | 0.03 | 0.03 | 85 | 1006.8 |
| 20260505214601 | 11 | 202 | 4.8 | 12.9 | 0.00 | 0.03 | 0.03 | 85 | 1006.9 |
| 20260505214501 | 11 | 206 | 4.8 | 12.9 | 0.00 | 0.03 | 0.03 | 85 | 1006.8 |
| 20260505214401 | 11 | 209 | 4.8 | 11.3 | 0.00 | 0.03 | 0.03 | 85 | 1006.9 |
| 20260505214301 | 11 | 199 | 3.2 | 11.3 | 0.00 | 0.03 | 0.03 | 85 | 1006.8 |
| 20260505214201 | 11 | 206 | 3.2 | 11.3 | 0.00 | 0.03 | 0.03 | 85 | 1006.8 |
| 20260505214101 | 11 | 196 | 3.2 | 11.3 | 0.00 | 0.03 | 0.03 | 85 | 1006.8 |
| 20260505214001 | 11 | 199 | 4.8 | 11.3 | 0.00 | 0.03 | 0.03 | 85 | 1006.8 |
| 20260505213901 | 11 | 198 | 4.8 | 12.9 | 0.00 | 0.03 | 0.03 | 85 | 1006.8 |
| 20260505213801 | 11 | 234 | 4.8 | 12.9 | 0.00 | 0.03 | 0.03 | 85 | 1006.8 |
| 20260505213701 | 11 | 234 | 4.8 | 12.9 | 0.00 | 0.03 | 0.03 | 85 | 1006.8 |
| 20260505213601 | 11 | 212 | 4.8 | 12.9 | 0.00 | 0.03 | 0.03 | 85 | 1006.8 |
| 20260505213501 | 11 | 211 | 4.8 | 12.9 | 0.00 | 0.03 | 0.03 | 85 | 1006.8 |
| 20260505213357 | 11 | 223 | 4.8 | 12.9 | 0.00 | 0.03 | 0.03 | 85 | 1006.8 |
| 20260505213257 | 11 | 227 | 4.8 | 12.9 | 0.00 | 0.03 | 0.03 | 85 | 1006.8 |
| 20260505213201 | 11 | 221 | 6.4 | 12.9 | 0.00 | 0.03 | 0.03 | 85 | 1006.8 |
| 20260505213157 | 11 | 221 | 6.4 | 12.9 | 0.00 | 0.03 | 0.03 | 85 | 1006.8 |
| 20260505213057 | 11 | 240 | 6.4 | 12.9 | 0.00 | 0.03 | 0.03 | 85 | 1006.8 |
| 20260505212957 | 11 | 271 | 4.8 | 12.9 | 0.00 | 0.03 | 0.03 | 85 | 1006.8 |
| 20260505212928 | 11 | 282 | 4.8 | 12.9 | 0.00 | 0.03 | 0.03 | 85 | 1006.8 |
| 20260505212920 | 11 | 269 | 4.8 | 12.9 | 0.00 | 0.03 | 0.03 | 85 | 1006.8 |
| 20260505212916 | 11 | 239 | 4.8 | 12.9 | 0.00 | 0.03 | 0.03 | 85 | 1006.8 |
| 20260505212651 | 11 | 282 | 4.8 | 12.9 | 0.00 | 0.03 | 0.03 | 85 | 1006.8 |
| 20260505212551 | 11 | 269 | 4.8 | 12.9 | 0.00 | 0.03 | 0.03 | 85 | 1006.8 |
| 20260505212451 | 11 | 238 | 4.8 | 9.7 | 0.00 | 0.03 | 0.03 | 85 | 1006.8 |
| 20260505212344 | 11 | 262 | 4.8 | 9.7 | 0.00 | 0.03 | 0.03 | 85 | 1006.8 |
| 20260505212245 | 11 | 275 | 4.8 | 11.3 | 0.00 | 0.03 | 0.03 | 85 | 1006.7 |
| 20260505212200 | 11 | 250 | 4.8 | 11.3 | 0.00 | 0.03 | 0.03 | 85 | 1006.7 |
| 20260505212145 | 11 | 250 | 4.8 | 11.3 | 0.00 | 0.03 | 0.03 | 85 | 1006.7 |
| 20260505212045 | 11 | 238 | 4.8 | 11.3 | 0.00 | 0.03 | 0.03 | 85 | 1006.7 |
| 20260505211945 | 11 | 254 | 4.8 | 11.3 | 0.00 | 0.03 | 0.03 | 85 | 1006.7 |
| 20260505211839 | 11 | 277 | 4.8 | 11.3 | 0.00 | 0.03 | 0.03 | 85 | 1006.5 |
| 20260505211743 | 11 | 279 | 4.8 | 12.9 | 0.00 | 0.03 | 0.03 | 84 | 1006.5 |
| 20260505211701 | 11 | 250 | 4.8 | 12.9 | 0.00 | 0.03 | 0.03 | 84 | 1006.5 |
| 20260505211640 | 11 | 250 | 4.8 | 12.9 | 0.00 | 0.03 | 0.03 | 85 | 1006.5 |
| 20260505211539 | 11 | 251 | 4.8 | 12.9 | 0.00 | 0.03 | 0.03 | 85 | 1006.5 |
| 20260505211438 | 11 | 313 | 6.4 | 12.9 | 0.00 | 0.03 | 0.03 | 84 | 1006.5 |
| 20260505211337 | 11 | 246 | 6.4 | 12.9 | 0.00 | 0.03 | 0.03 | 84 | 1006.5 |
| 20260505211241 | 11 | 281 | 6.4 | 12.9 | 0.00 | 0.03 | 0.03 | 84 | 1006.4 |
| 20260505211200 | 11 | 281 | 6.4 | 12.9 | 0.00 | 0.03 | 0.03 | 84 | 1006.4 |
| 20260505211137 | 11 | 263 | 6.4 | 12.9 | 0.00 | 0.03 | 0.03 | 84 | 1006.4 |
| 20260505211037 | 11 | 264 | 4.8 | 12.9 | 0.00 | 0.03 | 0.03 | 84 | 1006.4 |
| 20260505210937 | 11 | 268 | 4.8 | 12.9 | 0.00 | 0.03 | 0.03 | 84 | 1006.4 |
| 20260505210837 | 11 | 242 | 4.8 | 12.9 | 0.00 | 0.03 | 0.03 | 84 | 1006.5 |
| 20260505210739 | 12 | 255 | 4.8 | 12.9 | 0.00 | 0.03 | 0.03 | 84 | 1006.4 |
| 20260505210701 | 12 | 255 | 4.8 | 12.9 | 0.00 | 0.03 | 0.03 | 84 | 1006.4 |
| 20260505210633 | 12 | 255 | 4.8 | 12.9 | 0.00 | 0.03 | 0.03 | 84 | 1006.5 |
| 20260505210533 | 12 | 251 | 4.8 | 12.9 | 0.00 | 0.03 | 0.03 | 84 | 1006.5 |
| 20260505210433 | 12 | 242 | 4.8 | 12.9 | 0.00 | 0.03 | 0.03 | 84 | 1006.5 |
| 20260505210333 | 12 | 250 | 3.2 | 8.0 | 0.00 | 0.03 | 0.03 | 84 | 1006.4 |
| 20260505210238 | 12 | 304 | 4.8 | 8.0 | 0.00 | 0.03 | 0.03 | 84 | 1006.4 |
| 20260505210201 | 12 | 262 | 4.8 | 11.3 | 0.00 | 0.03 | 0.03 | 84 | 1006.4 |
| 20260505210132 | 12 | 262 | 4.8 | 11.3 | 0.00 | 0.03 | 0.03 | 84 | 1006.5 |
| 20260505210032 | 12 | 252 | 4.8 | 12.9 | 0.00 | 0.03 | 0.03 | 84 | 1006.7 |
| 20260505205932 | 12 | 248 | 4.8 | 12.9 | 0.00 | 0.03 | 0.03 | 83 | 1006.7 |
| 20260505205833 | 12 | 248 | 4.8 | 12.9 | 0.00 | 0.03 | 0.03 | 83 | 1006.7 |
| 20260505205735 | 12 | 218 | 4.8 | 12.9 | 0.00 | 0.03 | 0.03 | 83 | 1006.7 |
| 20260505205700 | 12 | 264 | 4.8 | 12.9 | 0.00 | 0.03 | 0.03 | 83 | 1006.7 |
| 20260505205631 | 12 | 264 | 6.4 | 14.5 | 0.00 | 0.03 | 0.03 | 83 | 1006.7 |
| 20260505205530 | 12 | 226 | 6.4 | 14.5 | 0.00 | 0.03 | 0.03 | 83 | 1006.7 |
| 20260505205431 | 12 | 225 | 6.4 | 16.1 | 0.00 | 0.03 | 0.03 | 83 | 1006.7 |
| 20260505205330 | 12 | 219 | 6.4 | 16.1 | 0.00 | 0.03 | 0.03 | 82 | 1006.7 |
| 20260505205233 | 12 | 259 | 6.4 | 16.1 | 0.00 | 0.03 | 0.03 | 82 | 1006.8 |
| 20260505205201 | 12 | 248 | 6.4 | 16.1 | 0.00 | 0.03 | 0.03 | 82 | 1006.8 |
| 20260505205129 | 12 | 232 | 6.4 | 16.1 | 0.00 | 0.03 | 0.03 | 82 | 1006.8 |
| 20260505205030 | 12 | 219 | 6.4 | 16.1 | 0.00 | 0.03 | 0.03 | 82 | 1006.7 |
| 20260505204929 | 12 | 203 | 6.4 | 16.1 | 0.00 | 0.03 | 0.03 | 82 | 1006.8 |
| 20260505204829 | 12 | 238 | 6.4 | 16.1 | 0.00 | 0.03 | 0.03 | 82 | 1006.8 |
| 20260505204731 | 12 | 215 | 6.4 | 16.1 | 0.00 | 0.03 | 0.03 | 82 | 1006.9 |
| 20260505204701 | 12 | 218 | 6.4 | 16.1 | 0.00 | 0.03 | 0.03 | 82 | 1006.9 |
| 20260505204629 | 12 | 240 | 6.4 | 16.1 | 0.00 | 0.03 | 0.03 | 81 | 1006.9 |
| 20260505204529 | 12 | 250 | 8.0 | 16.1 | 0.00 | 0.03 | 0.03 | 81 | 1006.9 |
| 20260505204429 | 12 | 248 | 8.0 | 16.1 | 0.00 | 0.03 | 0.03 | 81 | 1006.9 |
| 20260505204329 | 12 | 244 | 8.0 | 14.5 | 0.00 | 0.03 | 0.03 | 81 | 1006.9 |
| 20260505204229 | 12 | 243 | 8.0 | 14.5 | 0.00 | 0.03 | 0.03 | 81 | 1006.8 |
| 20260505204201 | 12 | 255 | 8.0 | 20.9 | 0.00 | 0.03 | 0.03 | 81 | 1006.8 |
| 20260505204129 | 12 | 286 | 9.7 | 27.4 | 0.00 | 0.03 | 0.03 | 80 | 1006.9 |
| 20260505204029 | 12 | 249 | 9.7 | 27.4 | 0.00 | 0.03 | 0.03 | 80 | 1007.0 |
| 20260505203929 | 13 | 242 | 9.7 | 27.4 | 0.00 | 0.03 | 0.03 | 80 | 1006.9 |
| 20260505203829 | 13 | 214 | 9.7 | 27.4 | 0.00 | 0.03 | 0.03 | 80 | 1006.9 |
| 20260505203729 | 13 | 237 | 9.7 | 27.4 | 0.00 | 0.03 | 0.03 | 80 | 1006.9 |
| 20260505203701 | 13 | 270 | 9.7 | 27.4 | 0.00 | 0.03 | 0.03 | 79 | 1006.9 |
| 20260505203629 | 13 | 245 | 9.7 | 27.4 | 0.00 | 0.03 | 0.03 | 79 | 1007.0 |
| 20260505203528 | 13 | 273 | 9.7 | 27.4 | 0.00 | 0.03 | 0.03 | 79 | 1007.0 |
| 20260505203428 | 13 | 248 | 11.3 | 27.4 | 0.00 | 0.03 | 0.03 | 79 | 1006.9 |
| 20260505203329 | 13 | 248 | 11.3 | 27.4 | 0.00 | 0.03 | 0.03 | 79 | 1006.9 |
| 20260505203229 | 13 | 227 | 9.7 | 27.4 | 0.00 | 0.03 | 0.03 | 79 | 1007.0 |
| 20260505203200 | 13 | 237 | 9.7 | 27.4 | 0.00 | 0.03 | 0.03 | 79 | 1007.0 |
| 20260505203129 | 13 | 298 | 9.7 | 19.3 | 0.00 | 0.03 | 0.03 | 79 | 1007.0 |
| 20260505203029 | 13 | 257 | 9.7 | 19.3 | 0.00 | 0.03 | 0.03 | 79 | 1006.9 |
| 20260505202929 | 13 | 227 | 9.7 | 19.3 | 0.00 | 0.03 | 0.03 | 79 | 1007.1 |
| 20260505202829 | 13 | 278 | 9.7 | 19.3 | 0.00 | 0.03 | 0.03 | 79 | 1007.0 |
| 20260505202728 | 13 | 250 | 9.7 | 19.3 | 0.00 | 0.03 | 0.03 | 79 | 1007.0 |
| 20260505202700 | 13 | 250 | 9.7 | 19.3 | 0.00 | 0.03 | 0.03 | 80 | 1007.0 |
| 20260505202629 | 13 | 265 | 9.7 | 19.3 | 0.00 | 0.03 | 0.03 | 80 | 1007.0 |
| 20260505202529 | 13 | 269 | 9.7 | 19.3 | 0.00 | 0.03 | 0.03 | 80 | 1007.0 |
| 20260505202432 | 13 | 277 | 9.7 | 19.3 | 0.00 | 0.03 | 0.03 | 80 | 1007.1 |
| 20260505202428 | 13 | 274 | 9.7 | 22.5 | 0.00 | 0.03 | 0.03 | 80 | 1007.1 |
| 20260505202416 | 13 | 249 | 9.7 | 22.5 | 0.00 | 0.03 | 0.03 | 80 | 1007.1 |
| 20260505202129 | 13 | 259 | 9.7 | 22.5 | 0.00 | 0.03 | 0.03 | 80 | 1007.1 |
| 20260505202029 | 13 | 259 | 9.7 | 22.5 | 0.00 | 0.03 | 0.03 | 80 | 1007.1 |
| 20260505201929 | 13 | 244 | 9.7 | 22.5 | 0.00 | 0.03 | 0.03 | 80 | 1007.2 |
| 20260505201830 | 13 | 269 | 9.7 | 22.5 | 0.00 | 0.03 | 0.03 | 81 | 1007.3 |
| 20260505201728 | 13 | 254 | 9.7 | 22.5 | 0.00 | 0.03 | 0.03 | 81 | 1007.2 |
| 20260505201701 | 13 | 250 | 9.7 | 22.5 | 0.00 | 0.03 | 0.03 | 81 | 1007.2 |
| 20260505201629 | 13 | 229 | 9.7 | 22.5 | 0.00 | 0.03 | 0.03 | 81 | 1007.2 |
| 20260505201529 | 13 | 259 | 9.7 | 22.5 | 0.00 | 0.03 | 0.03 | 81 | 1007.2 |
| 20260505201428 | 13 | 269 | 9.7 | 22.5 | 0.00 | 0.03 | 0.03 | 81 | 1007.2 |
| 20260505201328 | 13 | 265 | 9.7 | 22.5 | 0.00 | 0.03 | 0.03 | 81 | 1007.2 |
| 20260505201300 | 13 | 238 | 9.7 | 20.9 | 0.00 | 0.03 | 0.03 | 81 | 1007.3 |
| 20260505201201 | 13 | 239 | 9.7 | 20.9 | 0.00 | 0.03 | 0.03 | 81 | 1007.3 |
| 20260505201128 | 13 | 242 | 9.7 | 20.9 | 0.00 | 0.03 | 0.03 | 81 | 1007.2 |
| 20260505201028 | 13 | 266 | 11.3 | 20.9 | 0.00 | 0.03 | 0.03 | 81 | 1007.2 |
| 20260505200928 | 13 | 278 | 11.3 | 30.6 | 0.00 | 0.03 | 0.03 | 81 | 1007.2 |
| 20260505200830 | 13 | 249 | 12.9 | 30.6 | 0.00 | 0.03 | 0.03 | 81 | 1007.1 |
| 20260505200729 | 13 | 261 | 12.9 | 30.6 | 0.00 | 0.03 | 0.03 | 80 | 1007.2 |
| 20260505200700 | 13 | 272 | 12.9 | 30.6 | 0.00 | 0.03 | 0.03 | 80 | 1007.2 |
| 20260505200629 | 13 | 234 | 12.9 | 30.6 | 0.00 | 0.03 | 0.03 | 80 | 1007.2 |
| 20260505200529 | 13 | 271 | 12.9 | 30.6 | 0.00 | 0.03 | 0.03 | 81 | 1007.1 |
| 20260505200429 | 13 | 237 | 12.9 | 30.6 | 0.00 | 0.03 | 0.03 | 80 | 1007.1 |
| 20260505200329 | 13 | 294 | 12.9 | 30.6 | 0.00 | 0.03 | 0.03 | 80 | 1007.1 |
| 20260505200229 | 13 | 206 | 12.9 | 30.6 | 0.00 | 0.03 | 0.03 | 80 | 1007.0 |
| 20260505200201 | 13 | 244 | 12.9 | 30.6 | 0.00 | 0.03 | 0.03 | 80 | 1007.0 |
| 20260505200129 | 13 | 232 | 12.9 | 30.6 | 0.00 | 0.03 | 0.03 | 80 | 1007.0 |
| 20260505200028 | 13 | 227 | 11.3 | 30.6 | 0.00 | 0.03 | 0.03 | 79 | 1007.1 |
| 20260505195928 | 13 | 289 | 11.3 | 25.7 | 0.00 | 0.03 | 0.03 | 80 | 1007.1 |
| 20260505195828 | 13 | 220 | 11.3 | 25.7 | 0.00 | 0.03 | 0.03 | 81 | 1006.8 |
| 20260505195729 | 13 | 237 | 11.3 | 19.3 | 0.00 | 0.03 | 0.03 | 81 | 1007.0 |
| 20260505195700 | 13 | 250 | 11.3 | 19.3 | 0.00 | 0.03 | 0.03 | 81 | 1007.0 |
| 20260505195629 | 13 | 243 | 11.3 | 19.3 | 0.00 | 0.03 | 0.03 | 81 | 1006.9 |
| 20260505195529 | 13 | 248 | 11.3 | 19.3 | 0.00 | 0.03 | 0.03 | 81 | 1006.9 |
| 20260505195428 | 13 | 242 | 9.7 | 19.3 | 0.00 | 0.03 | 0.03 | 81 | 1006.9 |
| 20260505195328 | 13 | 262 | 11.3 | 19.3 | 0.00 | 0.03 | 0.03 | 81 | 1006.8 |
| 20260505195228 | 13 | 241 | 9.7 | 19.3 | 0.00 | 0.03 | 0.03 | 81 | 1006.8 |
| 20260505195201 | 13 | 267 | 9.7 | 19.3 | 0.00 | 0.03 | 0.03 | 81 | 1006.8 |
| 20260505195129 | 13 | 272 | 9.7 | 19.3 | 0.00 | 0.03 | 0.03 | 81 | 1006.8 |
| 20260505195029 | 13 | 232 | 9.7 | 19.3 | 0.00 | 0.03 | 0.03 | 81 | 1006.7 |
| 20260505194929 | 13 | 236 | 9.7 | 19.3 | 0.00 | 0.03 | 0.03 | 81 | 1006.7 |
| 20260505194829 | 13 | 229 | 9.7 | 19.3 | 0.00 | 0.03 | 0.03 | 81 | 1006.7 |
| 20260505194729 | 13 | 222 | 9.7 | 19.3 | 0.00 | 0.03 | 0.03 | 81 | 1006.5 |
| 20260505194701 | 13 | 209 | 9.7 | 20.9 | 0.00 | 0.03 | 0.03 | 81 | 1006.5 |
| 20260505194629 | 13 | 180 | 9.7 | 22.5 | 0.00 | 0.03 | 0.03 | 81 | 1006.5 |
| 20260505194529 | 13 | 232 | 9.7 | 22.5 | 0.00 | 0.03 | 0.03 | 80 | 1006.7 |
| 20260505194429 | 13 | 240 | 9.7 | 22.5 | 0.00 | 0.03 | 0.03 | 80 | 1006.5 |
| 20260505194329 | 13 | 226 | 9.7 | 22.5 | 0.00 | 0.03 | 0.03 | 80 | 1006.7 |
| 20260505194229 | 13 | 262 | 9.7 | 22.5 | 0.00 | 0.03 | 0.03 | 80 | 1006.5 |
| 20260505194205 | 13 | 250 | 9.7 | 22.5 | 0.00 | 0.03 | 0.03 | 80 | 1006.5 |
| 20260505194129 | 13 | 253 | 9.7 | 22.5 | 0.00 | 0.03 | 0.03 | 80 | 1006.4 |
| 20260505194029 | 13 | 267 | 9.7 | 22.5 | 0.00 | 0.03 | 0.03 | 80 | 1006.4 |
| 20260505193929 | 13 | 211 | 8.0 | 22.5 | 0.00 | 0.03 | 0.03 | 80 | 1006.4 |
| 20260505193828 | 13 | 261 | 8.0 | 22.5 | 0.00 | 0.03 | 0.03 | 81 | 1006.4 |
| 20260505193728 | 13 | 232 | 8.0 | 22.5 | 0.00 | 0.03 | 0.03 | 81 | 1006.4 |
| 20260505193703 | 13 | 205 | 8.0 | 22.5 | 0.00 | 0.03 | 0.03 | 81 | 1006.4 |
| 20260505193629 | 13 | 268 | 8.0 | 16.1 | 0.00 | 0.03 | 0.03 | 80 | 1006.4 |
| 20260505193529 | 13 | 264 | 8.0 | 16.1 | 0.00 | 0.03 | 0.03 | 81 | 1006.3 |
| 20260505193429 | 13 | 244 | 8.0 | 16.1 | 0.00 | 0.03 | 0.03 | 81 | 1006.3 |
| 20260505193329 | 13 | 270 | 8.0 | 16.1 | 0.00 | 0.03 | 0.03 | 81 | 1006.3 |
| 20260505193229 | 13 | 207 | 8.0 | 16.1 | 0.00 | 0.03 | 0.03 | 81 | 1006.3 |
| 20260505193204 | 13 | 221 | 8.0 | 16.1 | 0.00 | 0.03 | 0.03 | 81 | 1006.3 |
| 20260505193128 | 13 | 248 | 8.0 | 16.1 | 0.00 | 0.03 | 0.03 | 81 | 1006.3 |
| 20260505193028 | 13 | 232 | 8.0 | 16.1 | 0.00 | 0.03 | 0.03 | 82 | 1006.2 |
| 20260505192928 | 13 | 252 | 8.0 | 16.1 | 0.00 | 0.03 | 0.03 | 81 | 1006.2 |
| 20260505192924 | 13 | 217 | 6.4 | 16.1 | 0.00 | 0.03 | 0.03 | 82 | 1006.1 |
| 20260505192915 | 13 | 238 | 6.4 | 16.1 | 0.00 | 0.03 | 0.03 | 81 | 1006.2 |
| 20260505192911 | 13 | 245 | 6.4 | 16.1 | 0.00 | 0.03 | 0.03 | 82 | 1006.1 |
| 20260505192629 | 13 | 275 | 6.4 | 16.1 | 0.00 | 0.03 | 0.03 | 82 | 1006.2 |
| 20260505192529 | 13 | 263 | 4.8 | 14.5 | 0.00 | 0.03 | 0.03 | 82 | 1006.1 |
| 20260505192430 | 13 | 236 | 4.8 | 14.5 | 0.00 | 0.03 | 0.03 | 82 | 1006.1 |
| 20260505192330 | 13 | 244 | 4.8 | 12.9 | 0.00 | 0.03 | 0.03 | 82 | 1006.0 |
| 20260505192228 | 13 | 244 | 4.8 | 12.9 | 0.00 | 0.03 | 0.03 | 82 | 1006.0 |
| 20260505192201 | 13 | 269 | 4.8 | 12.9 | 0.00 | 0.03 | 0.03 | 82 | 1006.0 |
| 20260505192149 | 13 | 230 | 1.6 | 6.4 | 0.00 | 0.03 | 0.03 | 82 | 1005.9 |
| 20260505192142 | 13 | 246 | 3.2 | 11.3 | 0.00 | 0.03 | 0.03 | 82 | 1006.0 |
| 20260505192138 | 13 | 253 | 3.2 | 11.3 | 0.00 | 0.03 | 0.03 | 82 | 1006.0 |
| 20260505192134 | 13 | 247 | 3.2 | 8.0 | 0.00 | 0.03 | 0.03 | 82 | 1005.9 |
| 20260505191915 | 13 | 232 | 3.2 | 6.4 | 0.00 | 0.03 | 0.03 | 82 | 1005.9 |
| 20260505191911 | 13 | 231 | 1.6 | 6.4 | 0.00 | 0.03 | 0.03 | 83 | 1005.9 |
| 20260505191629 | 13 | 231 | 1.6 | 6.4 | 0.00 | 0.03 | 0.03 | 82 | 1005.9 |
| 20260505191529 | 13 | 252 | 1.6 | 6.4 | 0.00 | 0.03 | 0.03 | 82 | 1005.8 |
| 20260505191429 | 13 | 252 | 1.6 | 6.4 | 0.00 | 0.03 | 0.03 | 82 | 1005.8 |
| 20260505191329 | 13 | 254 | 1.6 | 4.8 | 0.00 | 0.03 | 0.03 | 82 | 1005.7 |
| 20260505191201 | 13 | 260 | 0.0 | 3.2 | 0.00 | 0.03 | 0.03 | 82 | 1005.7 |
| 20260505191129 | 13 | 260 | 0.0 | 3.2 | 0.00 | 0.03 | 0.03 | 82 | 1005.7 |
| 20260505191028 | 13 | 260 | 0.0 | 3.2 | 0.00 | 0.03 | 0.03 | 81 | 1005.6 |
| 20260505190931 | 13 | 260 | 0.0 | 1.6 | 0.00 | 0.03 | 0.03 | 81 | 1005.5 |
| 20260505190924 | 13 | 260 | 0.0 | 3.2 | 0.00 | 0.03 | 0.03 | 81 | 1005.7 |
| 20260505190917 | 13 | 260 | 0.0 | 1.6 | 0.00 | 0.03 | 0.03 | 81 | 1005.6 |
| 20260505190913 | 13 | 260 | 0.0 | 1.6 | 0.00 | 0.03 | 0.03 | 81 | 1005.6 |
| 20260505190623 | 13 | 260 | 0.0 | 1.6 | 0.00 | 0.03 | 0.03 | 81 | 1005.5 |
| 20260505190521 | 13 | 260 | 0.0 | 1.6 | 0.00 | 0.03 | 0.03 | 81 | 1005.5 |
| 20260505190417 | 13 | 260 | 0.0 | 1.6 | 0.00 | 0.03 | 0.03 | 81 | 1005.5 |
| 20260505190316 | 13 | 260 | 0.0 | 1.6 | 0.00 | 0.03 | 0.03 | 81 | 1005.5 |
| 20260505190201 | 13 | 260 | 0.0 | 1.6 | 0.00 | 0.03 | 0.03 | 81 | 1005.5 |
| 20260505190115 | 13 | 260 | 0.0 | 1.6 | 0.00 | 0.03 | 0.03 | 81 | 1005.5 |
| 20260505190014 | 13 | 260 | 0.0 | 1.6 | 0.00 | 0.03 | 0.03 | 81 | 1005.5 |
| 20260505185921 | 13 | 260 | 0.0 | 1.6 | 0.00 | 0.03 | 0.03 | 81 | 1005.5 |
| 20260505185917 | 13 | 260 | 0.0 | 4.8 | 0.00 | 0.05 | 0.03 | 81 | 1005.5 |
| 20260505185913 | 13 | 260 | 1.6 | 4.8 | 0.00 | 0.05 | 0.03 | 81 | 1005.5 |
| 20260505185609 | 13 | 260 | 1.6 | 4.8 | 0.00 | 0.05 | 0.03 | 81 | 1005.5 |
| 20260505185507 | 13 | 260 | 1.6 | 4.8 | 0.00 | 0.05 | 0.03 | 81 | 1005.5 |
| 20260505185403 | 13 | 260 | 1.6 | 4.8 | 0.00 | 0.05 | 0.03 | 81 | 1005.5 |
| 20260505185305 | 13 | 260 | 3.2 | 6.4 | 0.00 | 0.05 | 0.03 | 80 | 1005.4 |
| 20260505185201 | 13 | 260 | 3.2 | 9.7 | 0.00 | 0.05 | 0.03 | 81 | 1005.5 |
| 20260505185102 | 13 | 260 | 3.2 | 9.7 | 0.00 | 0.05 | 0.03 | 81 | 1005.5 |
| 20260505185003 | 13 | 260 | 3.2 | 9.7 | 0.00 | 0.08 | 0.03 | 81 | 1005.5 |
| 20260505184903 | 13 | 260 | 4.8 | 9.7 | 0.00 | 0.08 | 0.03 | 81 | 1005.5 |
| 20260505184803 | 13 | 260 | 4.8 | 9.7 | 0.00 | 0.10 | 0.03 | 80 | 1005.5 |
| 20260505184701 | 13 | 265 | 4.8 | 9.7 | 0.00 | 0.10 | 0.03 | 80 | 1005.5 |
| 20260505184603 | 13 | 265 | 4.8 | 9.7 | 0.00 | 0.13 | 0.03 | 80 | 1005.6 |
| 20260505184503 | 13 | 264 | 4.8 | 9.7 | 0.00 | 0.15 | 0.03 | 80 | 1005.6 |
| 20260505184403 | 13 | 264 | 4.8 | 9.7 | 0.00 | 0.15 | 0.03 | 80 | 1005.6 |
| 20260505184302 | 13 | 265 | 4.8 | 9.7 | 0.00 | 0.15 | 0.03 | 80 | 1005.6 |
| 20260505184201 | 13 | 264 | 4.8 | 11.3 | 0.00 | 0.15 | 0.03 | 79 | 1005.5 |
| 20260505184102 | 13 | 268 | 4.8 | 11.3 | 0.00 | 0.15 | 0.03 | 79 | 1005.5 |
| 20260505184002 | 13 | 268 | 4.8 | 11.3 | 0.00 | 0.15 | 0.03 | 79 | 1005.5 |
| 20260505183903 | 13 | 267 | 4.8 | 11.3 | 0.00 | 0.15 | 0.03 | 79 | 1005.5 |
| 20260505183803 | 13 | 261 | 4.8 | 11.3 | 0.00 | 0.15 | 0.03 | 79 | 1005.5 |
| 20260505183701 | 13 | 261 | 4.8 | 11.3 | 0.00 | 0.15 | 0.03 | 79 | 1005.5 |
| 20260505183603 | 13 | 249 | 4.8 | 11.3 | 0.00 | 0.15 | 0.03 | 79 | 1005.4 |
| 20260505183503 | 13 | 247 | 4.8 | 11.3 | 0.00 | 0.15 | 0.03 | 79 | 1005.5 |
| 20260505183403 | 13 | 248 | 4.8 | 11.3 | 0.00 | 0.15 | 0.03 | 79 | 1005.5 |
| 20260505183303 | 13 | 245 | 4.8 | 11.3 | 0.00 | 0.15 | 0.03 | 79 | 1005.5 |
| 20260505183205 | 13 | 256 | 4.8 | 9.7 | 0.00 | 0.15 | 0.03 | 79 | 1005.5 |
| 20260505183200 | 13 | 257 | 4.8 | 9.7 | 0.00 | 0.15 | 0.03 | 79 | 1005.5 |
| 20260505183103 | 13 | 246 | 4.8 | 9.7 | 0.00 | 0.15 | 0.03 | 79 | 1005.4 |
| 20260505183003 | 13 | 250 | 4.8 | 9.7 | 0.00 | 0.15 | 0.03 | 78 | 1005.4 |
| 20260505182903 | 13 | 250 | 4.8 | 9.7 | 0.00 | 0.15 | 0.03 | 78 | 1005.3 |
| 20260505182803 | 13 | 244 | 4.8 | 9.7 | 0.00 | 0.15 | 0.03 | 78 | 1005.3 |
| 20260505182700 | 13 | 259 | 4.8 | 9.7 | 0.00 | 0.15 | 0.03 | 78 | 1005.3 |
| 20260505182601 | 13 | 259 | 4.8 | 9.7 | 0.00 | 0.15 | 0.03 | 78 | 1005.3 |
| 20260505182500 | 13 | 259 | 4.8 | 9.7 | 0.00 | 0.15 | 0.03 | 78 | 1005.3 |
| 20260505182400 | 13 | 257 | 4.8 | 9.7 | 0.00 | 0.15 | 0.03 | 78 | 1005.3 |
| 20260505182300 | 13 | 257 | 4.8 | 9.7 | 0.00 | 0.15 | 0.03 | 78 | 1005.3 |
| 20260505182201 | 13 | 255 | 4.8 | 9.7 | 0.00 | 0.15 | 0.03 | 78 | 1005.3 |
| 20260505182100 | 13 | 257 | 4.8 | 9.7 | 0.00 | 0.15 | 0.03 | 78 | 1005.2 |
| 20260505182000 | 14 | 260 | 4.8 | 9.7 | 0.00 | 0.15 | 0.03 | 78 | 1005.2 |
| 20260505181900 | 14 | 261 | 4.8 | 9.7 | 0.00 | 0.15 | 0.03 | 78 | 1005.2 |
| 20260505181800 | 14 | 256 | 4.8 | 9.7 | 0.00 | 0.15 | 0.03 | 78 | 1005.2 |
| 20260505181700 | 14 | 257 | 3.2 | 6.4 | 0.00 | 0.15 | 0.03 | 79 | 1005.2 |
| 20260505181601 | 14 | 256 | 3.2 | 6.4 | 0.00 | 0.15 | 0.03 | 79 | 1005.2 |
| 20260505181501 | 14 | 257 | 3.2 | 6.4 | 0.00 | 0.15 | 0.03 | 79 | 1005.1 |
| 20260505181401 | 14 | 254 | 3.2 | 6.4 | 0.00 | 0.15 | 0.03 | 79 | 1005.2 |
| 20260505181301 | 14 | 252 | 3.2 | 6.4 | 0.00 | 0.15 | 0.03 | 79 | 1005.1 |
| 20260505181200 | 14 | 251 | 3.2 | 6.4 | 0.00 | 0.15 | 0.03 | 79 | 1005.2 |
| 20260505181100 | 14 | 252 | 3.2 | 6.4 | 0.00 | 0.15 | 0.03 | 79 | 1005.1 |
| 20260505181001 | 14 | 252 | 4.8 | 6.4 | 0.00 | 0.15 | 0.03 | 79 | 1005.1 |
| 20260505180901 | 14 | 252 | 4.8 | 6.4 | 0.00 | 0.15 | 0.03 | 79 | 1005.1 |
| 20260505180801 | 14 | 252 | 4.8 | 6.4 | 0.00 | 0.15 | 0.03 | 79 | 1005.1 |
| 20260505180700 | 14 | 251 | 4.8 | 6.4 | 0.00 | 0.15 | 0.03 | 79 | 1005.1 |
| 20260505180600 | 14 | 251 | 4.8 | 6.4 | 0.00 | 0.15 | 0.03 | 79 | 1005.1 |
| 20260505180500 | 14 | 255 | 3.2 | 6.4 | 0.00 | 0.15 | 0.03 | 79 | 1005.0 |
| 20260505180400 | 14 | 255 | 3.2 | 6.4 | 0.03 | 0.15 | 0.03 | 79 | 1005.0 |
| 20260505180302 | 14 | 254 | 3.2 | 6.4 | 0.03 | 0.15 | 0.03 | 79 | 1005.0 |
| 20260505180201 | 14 | 254 | 3.2 | 6.4 | 0.03 | 0.15 | 0.03 | 79 | 1005.0 |
| 20260505180100 | 14 | 252 | 3.2 | 6.4 | 0.03 | 0.15 | 0.03 | 79 | 1005.0 |
| 20260505180001 | 14 | 252 | 3.2 | 4.8 | 0.03 | 0.15 | 0.03 | 79 | 1004.9 |
| 20260505175901 | 14 | 252 | 3.2 | 4.8 | 0.03 | 0.15 | 0.03 | 79 | 1004.9 |
| 20260505175801 | 14 | 238 | 3.2 | 4.8 | 0.03 | 0.15 | 0.03 | 78 | 1004.9 |
| 20260505175700 | 14 | 236 | 3.2 | 4.8 | 0.03 | 0.15 | 0.03 | 79 | 1004.9 |
| 20260505175600 | 14 | 236 | 3.2 | 4.8 | 0.03 | 0.15 | 0.03 | 79 | 1004.9 |
| 20260505175500 | 14 | 236 | 3.2 | 4.8 | 0.03 | 0.15 | 0.03 | 79 | 1004.9 |
| 20260505175400 | 14 | 236 | 3.2 | 6.4 | 0.03 | 0.15 | 0.03 | 79 | 1004.7 |
| 20260505175300 | 14 | 236 | 3.2 | 6.4 | 0.03 | 0.15 | 0.03 | 79 | 1004.7 |
| 20260505175201 | 14 | 236 | 3.2 | 6.4 | 0.03 | 0.15 | 0.03 | 79 | 1004.7 |
| 20260505175105 | 14 | 236 | 3.2 | 6.4 | 0.03 | 0.15 | 0.03 | 79 | 1004.7 |
| 20260505175001 | 14 | 236 | 3.2 | 6.4 | 0.03 | 0.15 | 0.03 | 79 | 1004.7 |
| 20260505174901 | 14 | 236 | 3.2 | 6.4 | 0.03 | 0.15 | 0.03 | 79 | 1004.7 |
| 20260505174800 | 14 | 236 | 3.2 | 6.4 | 0.03 | 0.15 | 0.03 | 79 | 1004.7 |
| 20260505174700 | 14 | 236 | 3.2 | 6.4 | 0.03 | 0.15 | 0.03 | 79 | 1004.7 |
| 20260505174601 | 14 | 236 | 3.2 | 6.4 | 0.03 | 0.15 | 0.03 | 79 | 1004.7 |
| 20260505174502 | 15 | 236 | 3.2 | 6.4 | 0.03 | 0.15 | 0.03 | 79 | 1004.9 |
| 20260505174401 | 15 | 236 | 3.2 | 6.4 | 0.03 | 0.15 | 0.03 | 79 | 1004.7 |
| 20260505174300 | 15 | 236 | 3.2 | 6.4 | 0.03 | 0.15 | 0.03 | 79 | 1004.7 |
| 20260505174200 | 15 | 269 | 3.2 | 6.4 | 0.03 | 0.15 | 0.03 | 80 | 1004.7 |
| 20260505174100 | 15 | 233 | 3.2 | 8.0 | 0.03 | 0.15 | 0.03 | 79 | 1004.6 |
| 20260505174000 | 15 | 257 | 3.2 | 8.0 | 0.03 | 0.15 | 0.03 | 80 | 1004.6 |
| 20260505173920 | 15 | 259 | 3.2 | 8.0 | 0.03 | 0.15 | 0.03 | 80 | 1004.6 |
| 20260505173916 | 15 | 259 | 3.2 | 8.0 | 0.03 | 0.15 | 0.03 | 80 | 1004.5 |
| 20260505173912 | 15 | 259 | 3.2 | 8.0 | 0.03 | 0.15 | 0.03 | 79 | 1004.5 |
| 20260505173600 | 15 | 259 | 3.2 | 8.0 | 0.03 | 0.15 | 0.03 | 79 | 1004.5 |
| 20260505173501 | 15 | 259 | 3.2 | 8.0 | 0.03 | 0.15 | 0.03 | 79 | 1004.5 |
| 20260505173400 | 15 | 254 | 3.2 | 8.0 | 0.03 | 0.15 | 0.03 | 78 | 1004.5 |
| 20260505173300 | 15 | 252 | 3.2 | 8.0 | 0.03 | 0.15 | 0.03 | 78 | 1004.5 |
| 20260505173200 | 15 | 250 | 3.2 | 8.0 | 0.03 | 0.15 | 0.03 | 77 | 1004.5 |
| 20260505173100 | 15 | 271 | 3.2 | 6.4 | 0.03 | 0.15 | 0.03 | 77 | 1004.4 |
| 20260505173001 | 15 | 273 | 1.6 | 6.4 | 0.03 | 0.15 | 0.03 | 76 | 1004.4 |
| 20260505172901 | 15 | 290 | 1.6 | 6.4 | 0.03 | 0.15 | 0.03 | 76 | 1004.3 |
| 20260505172800 | 15 | 302 | 1.6 | 6.4 | 0.03 | 0.15 | 0.03 | 76 | 1004.3 |
| 20260505172700 | 15 | 333 | 1.6 | 6.4 | 0.03 | 0.15 | 0.03 | 76 | 1004.2 |
| 20260505172600 | 15 | 29 | 1.6 | 6.4 | 0.03 | 0.15 | 0.03 | 77 | 1004.2 |
| 20260505172500 | 15 | 34 | 1.6 | 6.4 | 0.03 | 0.15 | 0.03 | 77 | 1004.2 |
| 20260505172400 | 15 | 35 | 1.6 | 6.4 | 0.03 | 0.15 | 0.03 | 77 | 1004.1 |
| 20260505172300 | 15 | 35 | 1.6 | 6.4 | 0.03 | 0.15 | 0.03 | 78 | 1004.1 |
| 20260505172201 | 15 | 35 | 1.6 | 6.4 | 0.03 | 0.15 | 0.03 | 78 | 1004.1 |
| 20260505172101 | 15 | 35 | 3.2 | 12.9 | 0.03 | 0.15 | 0.03 | 77 | 1004.1 |
| 20260505172001 | 15 | 35 | 3.2 | 12.9 | 0.03 | 0.15 | 0.03 | 77 | 1004.1 |
| 20260505171901 | 15 | 35 | 3.2 | 12.9 | 0.03 | 0.15 | 0.03 | 76 | 1004.0 |
| 20260505171800 | 15 | 35 | 3.2 | 12.9 | 0.03 | 0.15 | 0.03 | 77 | 1004.0 |
| 20260505171700 | 15 | 63 | 3.2 | 12.9 | 0.03 | 0.15 | 0.03 | 77 | 1004.0 |
| 20260505171600 | 15 | 55 | 4.8 | 12.9 | 0.03 | 0.15 | 0.03 | 78 | 1004.0 |
| 20260505171501 | 15 | 55 | 4.8 | 12.9 | 0.03 | 0.15 | 0.03 | 78 | 1004.0 |
| 20260505171401 | 15 | 37 | 4.8 | 16.1 | 0.03 | 0.15 | 0.03 | 77 | 1004.0 |
| 20260505171301 | 15 | 342 | 6.4 | 16.1 | 0.03 | 0.15 | 0.03 | 76 | 1004.0 |
| 20260505171202 | 15 | 15 | 6.4 | 16.1 | 0.03 | 0.15 | 0.03 | 76 | 1004.0 |
| 20260505171158 | 15 | 15 | 6.4 | 16.1 | 0.03 | 0.15 | 0.03 | 76 | 1004.0 |
| 20260505171058 | 15 | 43 | 6.4 | 16.1 | 0.03 | 0.15 | 0.03 | 75 | 1004.0 |
| 20260505170959 | 15 | 336 | 6.4 | 16.1 | 0.03 | 0.15 | 0.03 | 75 | 1004.1 |
| 20260505170859 | 15 | 15 | 6.4 | 16.1 | 0.03 | 0.15 | 0.03 | 76 | 1004.0 |
| 20260505170757 | 15 | 18 | 6.4 | 16.1 | 0.03 | 0.15 | 0.03 | 75 | 1004.0 |
| 20260505170700 | 15 | 21 | 6.4 | 16.1 | 0.03 | 0.15 | 0.03 | 76 | 1004.0 |
| 20260505170657 | 15 | 33 | 6.4 | 16.1 | 0.03 | 0.15 | 0.03 | 76 | 1004.0 |
| 20260505170556 | 15 | 40 | 6.4 | 16.1 | 0.03 | 0.15 | 0.03 | 76 | 1004.2 |
| 20260505170457 | 15 | 5 | 4.8 | 16.1 | 0.03 | 0.15 | 0.00 | 75 | 1004.3 |
| 20260505170356 | 15 | 342 | 4.8 | 12.9 | 0.00 | 0.15 | 0.00 | 76 | 1004.3 |
| 20260505170257 | 15 | 348 | 4.8 | 9.7 | 0.00 | 0.15 | 0.00 | 75 | 1004.4 |
| 20260505170200 | 15 | 343 | 4.8 | 9.7 | 0.00 | 0.15 | 0.00 | 74 | 1004.5 |
| 20260505170156 | 15 | 344 | 4.8 | 9.7 | 0.00 | 0.15 | 0.00 | 74 | 1004.5 |
| 20260505170055 | 15 | 333 | 3.2 | 9.7 | 0.00 | 0.15 | 0.00 | 73 | 1004.6 |
| 20260505165951 | 15 | 319 | 3.2 | 9.7 | 0.00 | 0.15 | 0.00 | 73 | 1004.6 |
| 20260505165850 | 15 | 323 | 3.2 | 8.0 | 0.00 | 0.15 | 0.00 | 72 | 1004.7 |
| 20260505165750 | 15 | 314 | 3.2 | 8.0 | 0.00 | 0.15 | 0.00 | 72 | 1004.9 |
| 20260505165701 | 15 | 313 | 3.2 | 8.0 | 0.00 | 0.15 | 0.00 | 72 | 1004.9 |
| 20260505165650 | 15 | 313 | 3.2 | 8.0 | 0.00 | 0.15 | 0.00 | 72 | 1004.9 |
| 20260505165551 | 15 | 303 | 4.8 | 8.0 | 0.00 | 0.15 | 0.00 | 72 | 1004.9 |
| 20260505165446 | 15 | 302 | 4.8 | 8.0 | 0.00 | 0.15 | 0.00 | 72 | 1004.9 |
| 20260505165345 | 15 | 302 | 4.8 | 8.0 | 0.00 | 0.15 | 0.00 | 72 | 1004.9 |
| 20260505165245 | 16 | 292 | 4.8 | 8.0 | 0.00 | 0.15 | 0.00 | 71 | 1004.9 |
| 20260505165201 | 16 | 293 | 4.8 | 9.7 | 0.00 | 0.15 | 0.00 | 71 | 1004.9 |
| 20260505165145 | 16 | 294 | 4.8 | 9.7 | 0.00 | 0.15 | 0.00 | 70 | 1005.0 |
| 20260505165043 | 16 | 299 | 4.8 | 9.7 | 0.00 | 0.15 | 0.00 | 71 | 1005.0 |
| 20260505164941 | 16 | 300 | 4.8 | 9.7 | 0.00 | 0.15 | 0.00 | 71 | 1005.0 |
| 20260505164839 | 16 | 304 | 4.8 | 9.7 | 0.00 | 0.15 | 0.00 | 71 | 1005.0 |
| 20260505164739 | 16 | 290 | 4.8 | 9.7 | 0.00 | 0.15 | 0.00 | 71 | 1005.0 |
| 20260505164701 | 16 | 290 | 4.8 | 9.7 | 0.00 | 0.15 | 0.00 | 71 | 1005.0 |
| 20260505164638 | 16 | 311 | 4.8 | 9.7 | 0.00 | 0.15 | 0.00 | 71 | 1005.0 |
| 20260505164537 | 16 | 292 | 4.8 | 9.7 | 0.00 | 0.15 | 0.00 | 71 | 1005.0 |
| 20260505164432 | 16 | 304 | 4.8 | 11.3 | 0.00 | 0.15 | 0.00 | 71 | 1005.0 |
| 20260505164332 | 16 | 298 | 4.8 | 11.3 | 0.00 | 0.15 | 0.00 | 70 | 1005.0 |
| 20260505164232 | 16 | 281 | 4.8 | 11.3 | 0.00 | 0.15 | 0.00 | 69 | 1005.0 |
| 20260505164201 | 16 | 302 | 4.8 | 11.3 | 0.00 | 0.15 | 0.00 | 68 | 1005.0 |
| 20260505164133 | 16 | 291 | 4.8 | 11.3 | 0.00 | 0.15 | 0.00 | 68 | 1005.1 |
| 20260505164035 | 16 | 295 | 4.8 | 11.3 | 0.00 | 0.15 | 0.00 | 68 | 1005.1 |
| 20260505163932 | 16 | 277 | 4.8 | 11.3 | 0.00 | 0.15 | 0.00 | 67 | 1005.1 |
| 20260505163832 | 16 | 299 | 4.8 | 11.3 | 0.00 | 0.15 | 0.00 | 67 | 1005.1 |
| 20260505163733 | 16 | 265 | 4.8 | 11.3 | 0.00 | 0.15 | 0.00 | 66 | 1005.0 |
| 20260505163700 | 16 | 290 | 4.8 | 11.3 | 0.00 | 0.15 | 0.00 | 66 | 1005.0 |
| 20260505163634 | 16 | 290 | 4.8 | 11.3 | 0.00 | 0.15 | 0.00 | 67 | 1005.0 |
| 20260505163530 | 16 | 288 | 4.8 | 11.3 | 0.00 | 0.15 | 0.00 | 66 | 1005.0 |
| 20260505163430 | 16 | 278 | 4.8 | 8.0 | 0.00 | 0.15 | 0.00 | 67 | 1005.0 |
| 20260505163330 | 16 | 297 | 4.8 | 9.7 | 0.00 | 0.15 | 0.00 | 67 | 1005.0 |
| 20260505163230 | 16 | 304 | 4.8 | 9.7 | 0.00 | 0.15 | 0.00 | 67 | 1005.0 |
| 20260505163201 | 16 | 294 | 4.8 | 9.7 | 0.00 | 0.15 | 0.00 | 67 | 1005.0 |
| 20260505163130 | 16 | 298 | 4.8 | 9.7 | 0.00 | 0.15 | 0.00 | 67 | 1005.0 |
| 20260505163030 | 16 | 295 | 4.8 | 9.7 | 0.00 | 0.15 | 0.00 | 66 | 1005.0 |
| 20260505162929 | 16 | 289 | 4.8 | 9.7 | 0.00 | 0.15 | 0.00 | 66 | 1004.9 |
| 20260505162829 | 16 | 292 | 4.8 | 9.7 | 0.00 | 0.15 | 0.00 | 66 | 1005.0 |
| 20260505162729 | 16 | 281 | 4.8 | 9.7 | 0.00 | 0.15 | 0.00 | 66 | 1004.9 |
| 20260505162655 | 16 | 292 | 4.8 | 9.7 | 0.00 | 0.15 | 0.00 | 65 | 1005.0 |
| 20260505162629 | 16 | 319 | 4.8 | 9.7 | 0.00 | 0.15 | 0.00 | 65 | 1005.0 |
| 20260505162529 | 16 | 303 | 4.8 | 9.7 | 0.00 | 0.15 | 0.00 | 66 | 1004.9 |
| 20260505162429 | 16 | 336 | 4.8 | 11.3 | 0.00 | 0.15 | 0.00 | 65 | 1004.9 |
| 20260505162329 | 16 | 304 | 4.8 | 12.9 | 0.00 | 0.15 | 0.00 | 66 | 1004.9 |
| 20260505162229 | 16 | 306 | 4.8 | 12.9 | 0.00 | 0.15 | 0.00 | 66 | 1004.9 |
| 20260505162150 | 16 | 298 | 4.8 | 12.9 | 0.00 | 0.15 | 0.00 | 66 | 1005.0 |
| 20260505162130 | 16 | 292 | 4.8 | 12.9 | 0.00 | 0.15 | 0.00 | 66 | 1005.0 |
| 20260505162028 | 16 | 294 | 4.8 | 12.9 | 0.00 | 0.15 | 0.00 | 65 | 1005.0 |
| 20260505161928 | 16 | 298 | 4.8 | 12.9 | 0.00 | 0.15 | 0.00 | 65 | 1005.0 |
| 20260505161826 | 16 | 288 | 4.8 | 12.9 | 0.00 | 0.15 | 0.00 | 66 | 1005.0 |
| 20260505161723 | 16 | 297 | 4.8 | 12.9 | 0.00 | 0.15 | 0.00 | 67 | 1005.0 |
| 20260505161644 | 16 | 287 | 4.8 | 12.9 | 0.00 | 0.15 | 0.00 | 67 | 1005.1 |
| 20260505161622 | 16 | 292 | 4.8 | 12.9 | 0.00 | 0.15 | 0.00 | 67 | 1005.1 |
| 20260505161522 | 16 | 296 | 6.4 | 12.9 | 0.00 | 0.15 | 0.00 | 67 | 1005.1 |
| 20260505161421 | 16 | 317 | 6.4 | 12.9 | 0.00 | 0.15 | 0.00 | 68 | 1005.1 |
| 20260505161320 | 16 | 300 | 6.4 | 11.3 | 0.00 | 0.15 | 0.00 | 68 | 1005.1 |
| 20260505161217 | 16 | 304 | 6.4 | 12.9 | 0.00 | 0.15 | 0.00 | 68 | 1005.1 |
| 20260505161138 | 16 | 295 | 6.4 | 12.9 | 0.00 | 0.15 | 0.00 | 67 | 1005.1 |
| 20260505161114 | 16 | 322 | 6.4 | 14.5 | 0.00 | 0.15 | 0.00 | 67 | 1005.1 |
| 20260505161014 | 16 | 291 | 6.4 | 14.5 | 0.00 | 0.15 | 0.00 | 67 | 1005.1 |
| 20260505160914 | 16 | 267 | 6.4 | 14.5 | 0.00 | 0.15 | 0.00 | 68 | 1005.1 |
| 20260505160854 | 16 | 308 | 6.4 | 14.5 | 0.00 | 0.15 | 0.00 | 68 | 1005.1 |
| 20260505160847 | 16 | 299 | 6.4 | 14.5 | 0.00 | 0.15 | 0.00 | 68 | 1005.1 |
| 20260505160843 | 16 | 273 | 6.4 | 14.5 | 0.00 | 0.15 | 0.00 | 68 | 1005.1 |
| 20260505160611 | 16 | 294 | 6.4 | 14.5 | 0.00 | 0.15 | 0.00 | 68 | 1005.1 |
| 20260505160510 | 16 | 268 | 6.4 | 14.5 | 0.00 | 0.15 | 0.00 | 68 | 1005.2 |
| 20260505160410 | 16 | 304 | 6.4 | 14.5 | 0.00 | 0.15 | 0.00 | 68 | 1005.1 |
| 20260505160307 | 16 | 296 | 6.4 | 14.5 | 0.00 | 0.15 | 0.00 | 68 | 1005.1 |
| 20260505160204 | 16 | 312 | 6.4 | 14.5 | 0.00 | 0.15 | 0.00 | 68 | 1005.1 |
| 20260505160130 | 16 | 288 | 6.4 | 14.5 | 0.00 | 0.15 | 0.00 | 68 | 1005.1 |
| 20260505153352 | 17 | 288 | 8.0 | 16.1 | 0.00 | 0.15 | 0.00 | 66 | 1004.9 |
| 20260505153250 | 17 | 291 | 8.0 | 16.1 | 0.00 | 0.15 | 0.00 | 66 | 1004.7 |
| 20260505153150 | 17 | 302 | 9.7 | 16.1 | 0.00 | 0.15 | 0.00 | 66 | 1004.9 |
| 20260505153130 | 17 | 285 | 9.7 | 16.1 | 0.00 | 0.15 | 0.00 | 66 | 1004.9 |
| 20260505153050 | 17 | 294 | 9.7 | 16.1 | 0.00 | 0.15 | 0.00 | 66 | 1004.9 |
| 20260505152944 | 17 | 312 | 9.7 | 17.7 | 0.00 | 0.15 | 0.00 | 65 | 1004.7 |
| 20260505152845 | 17 | 266 | 9.7 | 17.7 | 0.00 | 0.15 | 0.00 | 65 | 1004.9 |
| 20260505152744 | 17 | 321 | 9.7 | 17.7 | 0.00 | 0.15 | 0.00 | 65 | 1004.9 |
| 20260505152644 | 17 | 314 | 9.7 | 17.7 | 0.00 | 0.15 | 0.00 | 65 | 1004.7 |
| 20260505152630 | 17 | 319 | 9.7 | 17.7 | 0.00 | 0.15 | 0.00 | 65 | 1004.7 |
| 20260505152543 | 17 | 283 | 9.7 | 17.7 | 0.00 | 0.15 | 0.00 | 65 | 1004.7 |
| 20260505152438 | 17 | 309 | 9.7 | 17.7 | 0.00 | 0.15 | 0.00 | 64 | 1004.7 |
| 20260505152354 | 17 | 323 | 8.0 | 17.7 | 0.00 | 0.15 | 0.00 | 64 | 1005.0 |
| 20260505152350 | 17 | 294 | 9.7 | 17.7 | 0.00 | 0.15 | 0.00 | 64 | 1004.7 |
| 20260505152346 | 17 | 292 | 8.0 | 17.7 | 0.00 | 0.15 | 0.00 | 64 | 1004.9 |
| 20260505152342 | 17 | 296 | 8.0 | 17.7 | 0.00 | 0.15 | 0.00 | 64 | 1005.0 |
| 20260505152123 | 17 | 292 | 6.4 | 14.5 | 0.00 | 0.15 | 0.00 | 64 | 1004.9 |
| 20260505152111 | 17 | 301 | 8.0 | 16.1 | 0.00 | 0.15 | 0.00 | 64 | 1004.9 |
| 20260505151849 | 17 | 295 | 8.0 | 14.5 | 0.00 | 0.15 | 0.00 | 64 | 1004.9 |
| 20260505151845 | 17 | 344 | 6.4 | 14.5 | 0.00 | 0.15 | 0.00 | 65 | 1004.9 |
| 20260505151841 | 17 | 270 | 6.4 | 14.5 | 0.00 | 0.15 | 0.00 | 64 | 1004.9 |
| 20260505151535 | 17 | 290 | 6.4 | 14.5 | 0.00 | 0.15 | 0.00 | 65 | 1004.9 |
| 20260505151434 | 17 | 298 | 6.4 | 14.5 | 0.00 | 0.15 | 0.00 | 65 | 1004.9 |
| 20260505151334 | 17 | 296 | 6.4 | 14.5 | 0.00 | 0.15 | 0.00 | 65 | 1004.9 |
| 20260505151234 | 17 | 292 | 6.4 | 14.5 | 0.00 | 0.15 | 0.00 | 64 | 1004.9 |
| 20260505151134 | 17 | 314 | 6.4 | 14.5 | 0.00 | 0.15 | 0.00 | 64 | 1004.9 |
| 20260505151130 | 17 | 307 | 6.4 | 14.5 | 0.00 | 0.15 | 0.00 | 64 | 1004.9 |
| 20260505151034 | 17 | 319 | 6.4 | 14.5 | 0.00 | 0.15 | 0.00 | 64 | 1004.9 |
| 20260505150934 | 17 | 326 | 6.4 | 14.5 | 0.00 | 0.15 | 0.00 | 64 | 1004.9 |
| 20260505150832 | 16 | 321 | 6.4 | 14.5 | 0.00 | 0.15 | 0.00 | 65 | 1004.9 |
| 20260505150732 | 16 | 313 | 6.4 | 14.5 | 0.00 | 0.15 | 0.00 | 64 | 1004.9 |
| 20260505150635 | 16 | 312 | 6.4 | 14.5 | 0.00 | 0.15 | 0.00 | 64 | 1004.9 |
| 20260505150630 | 16 | 303 | 6.4 | 14.5 | 0.00 | 0.15 | 0.00 | 64 | 1004.9 |
| 20260505150530 | 16 | 296 | 6.4 | 14.5 | 0.00 | 0.15 | 0.00 | 65 | 1004.9 |
| 20260505150432 | 16 | 292 | 4.8 | 14.5 | 0.00 | 0.15 | 0.00 | 65 | 1004.9 |
| 20260505150330 | 16 | 320 | 4.8 | 12.9 | 0.00 | 0.15 | 0.00 | 65 | 1004.9 |
| 20260505150230 | 16 | 298 | 4.8 | 12.9 | 0.00 | 0.15 | 0.00 | 65 | 1004.9 |
| 20260505150129 | 16 | 326 | 4.8 | 9.7 | 0.00 | 0.15 | 0.00 | 65 | 1004.9 |
| 20260505140629 | 17 | 309 | 6.4 | 16.1 | 0.00 | 0.15 | 0.00 | 61 | 1004.9 |
| 20260505140549 | 17 | 303 | 8.0 | 16.1 | 0.00 | 0.15 | 0.00 | 61 | 1005.0 |
| 20260505140444 | 17 | 298 | 8.0 | 16.1 | 0.00 | 0.15 | 0.00 | 61 | 1004.9 |
| 20260505140343 | 17 | 290 | 8.0 | 16.1 | 0.00 | 0.15 | 0.00 | 61 | 1004.9 |
| 20260505140244 | 17 | 331 | 8.0 | 16.1 | 0.00 | 0.15 | 0.00 | 61 | 1004.9 |
| 20260505140144 | 17 | 286 | 8.0 | 16.1 | 0.00 | 0.15 | 0.00 | 61 | 1004.9 |
| 20260505140129 | 17 | 304 | 8.0 | 16.1 | 0.00 | 0.15 | 0.00 | 61 | 1004.9 |
| 20260505130302 | 18 | 288 | 9.7 | 19.3 | 0.00 | 0.15 | 0.00 | 67 | 1005.1 |
| 20260505130201 | 18 | 317 | 11.3 | 20.9 | 0.00 | 0.15 | 0.00 | 66 | 1005.1 |
| 20260505130114 | 18 | 318 | 11.3 | 20.9 | 0.00 | 0.15 | 0.00 | 65 | 1005.1 |
| 20260505125001 | 18 | 283 | 11.3 | 20.9 | 0.00 | 0.15 | 0.00 | 62 | 1005.1 |
| 20260505124901 | 18 | 309 | 11.3 | 20.9 | 0.00 | 0.15 | 0.00 | 62 | 1005.1 |
| 20260505124800 | 18 | 240 | 11.3 | 20.9 | 0.00 | 0.15 | 0.00 | 62 | 1005.1 |
| 20260505124700 | 18 | 310 | 11.3 | 19.3 | 0.00 | 0.15 | 0.00 | 63 | 1005.0 |
| 20260505124607 | 18 | 342 | 11.3 | 19.3 | 0.00 | 0.15 | 0.00 | 62 | 1005.1 |
| 20260505124600 | 18 | 289 | 11.3 | 19.3 | 0.00 | 0.15 | 0.00 | 62 | 1005.1 |
| 20260505124500 | 18 | 294 | 12.9 | 19.3 | 0.00 | 0.15 | 0.00 | 62 | 1005.0 |
| 20260505124401 | 18 | 279 | 12.9 | 19.3 | 0.00 | 0.15 | 0.00 | 61 | 1005.1 |
| 20260505124338 | 18 | 257 | 11.3 | 19.3 | 0.00 | 0.15 | 0.00 | 58 | 1005.1 |
| 20260505124322 | 18 | 270 | 11.3 | 19.3 | 0.00 | 0.15 | 0.00 | 60 | 1005.2 |
| 20260505124318 | 18 | 268 | 11.3 | 19.3 | 0.00 | 0.15 | 0.00 | 59 | 1005.1 |
| 20260505124100 | 18 | 264 | 11.3 | 19.3 | 0.00 | 0.15 | 0.00 | 58 | 1005.1 |
| 20260505124000 | 18 | 277 | 9.7 | 19.3 | 0.00 | 0.15 | 0.00 | 58 | 1005.1 |
| 20260505123900 | 18 | 278 | 9.7 | 19.3 | 0.00 | 0.15 | 0.00 | 57 | 1005.1 |
| 20260505123800 | 18 | 289 | 9.7 | 19.3 | 0.00 | 0.15 | 0.00 | 57 | 1005.1 |
| 20260505123700 | 18 | 280 | 9.7 | 19.3 | 0.00 | 0.15 | 0.00 | 57 | 1005.2 |
| 20260505123606 | 18 | 273 | 9.7 | 19.3 | 0.00 | 0.15 | 0.00 | 58 | 1005.1 |
| 20260505123600 | 18 | 269 | 9.7 | 19.3 | 0.00 | 0.15 | 0.00 | 58 | 1005.1 |
| 20260505123501 | 18 | 253 | 8.0 | 17.7 | 0.00 | 0.15 | 0.00 | 59 | 1005.1 |
| 20260505123402 | 18 | 319 | 8.0 | 17.7 | 0.00 | 0.15 | 0.00 | 59 | 1005.1 |
| 20260505123301 | 18 | 277 | 8.0 | 17.7 | 0.00 | 0.15 | 0.00 | 58 | 1005.1 |
| 20260505123201 | 18 | 254 | 9.7 | 17.7 | 0.00 | 0.15 | 0.00 | 60 | 1005.1 |
| 20260505123102 | 18 | 298 | 9.7 | 17.7 | 0.00 | 0.15 | 0.00 | 59 | 1005.1 |
| 20260505123001 | 18 | 263 | 9.7 | 17.7 | 0.00 | 0.15 | 0.00 | 59 | 1005.1 |
| 20260505122901 | 18 | 261 | 9.7 | 17.7 | 0.00 | 0.15 | 0.00 | 58 | 1005.2 |
| 20260505122801 | 18 | 266 | 9.7 | 17.7 | 0.00 | 0.15 | 0.00 | 58 | 1005.2 |
| 20260505122701 | 18 | 265 | 8.0 | 16.1 | 0.00 | 0.15 | 0.00 | 60 | 1005.3 |
| 20260505122605 | 18 | 242 | 8.0 | 16.1 | 0.00 | 0.15 | 0.00 | 59 | 1005.3 |
| 20260505122601 | 18 | 227 | 8.0 | 16.1 | 0.00 | 0.15 | 0.00 | 59 | 1005.3 |
| 20260505122501 | 18 | 238 | 8.0 | 16.1 | 0.00 | 0.15 | 0.00 | 59 | 1005.3 |
| 20260505122401 | 18 | 269 | 8.0 | 16.1 | 0.00 | 0.15 | 0.00 | 60 | 1005.3 |
| 20260505122300 | 19 | 220 | 8.0 | 16.1 | 0.00 | 0.15 | 0.00 | 59 | 1005.3 |
| 20260505122200 | 19 | 238 | 8.0 | 16.1 | 0.00 | 0.15 | 0.00 | 57 | 1005.4 |
| 20260505122101 | 19 | 240 | 6.4 | 16.1 | 0.00 | 0.15 | 0.00 | 56 | 1005.3 |
| 20260505122001 | 19 | 231 | 6.4 | 16.1 | 0.00 | 0.15 | 0.00 | 54 | 1005.4 |
| 20260505121901 | 19 | 279 | 6.4 | 16.1 | 0.00 | 0.15 | 0.00 | 53 | 1005.3 |
| 20260505121801 | 19 | 268 | 6.4 | 16.1 | 0.00 | 0.15 | 0.00 | 54 | 1005.4 |
| 20260505121701 | 19 | 263 | 6.4 | 16.1 | 0.00 | 0.15 | 0.00 | 56 | 1005.5 |
| 20260505121604 | 19 | 236 | 6.4 | 16.1 | 0.00 | 0.15 | 0.00 | 58 | 1005.5 |
| 20260505121556 | 19 | 229 | 6.4 | 16.1 | 0.00 | 0.15 | 0.00 | 58 | 1005.5 |
| 20260505121456 | 19 | 241 | 6.4 | 16.1 | 0.00 | 0.15 | 0.00 | 59 | 1005.4 |
| 20260505121355 | 19 | 288 | 6.4 | 16.1 | 0.00 | 0.15 | 0.00 | 59 | 1005.4 |
| 20260505121256 | 19 | 219 | 6.4 | 16.1 | 0.00 | 0.15 | 0.00 | 59 | 1005.4 |
| 20260505121156 | 19 | 257 | 6.4 | 16.1 | 0.00 | 0.15 | 0.00 | 58 | 1005.3 |
| 20260505121104 | 19 | 252 | 6.4 | 16.1 | 0.00 | 0.15 | 0.00 | 58 | 1005.3 |
| 20260505121055 | 19 | 261 | 6.4 | 16.1 | 0.00 | 0.15 | 0.00 | 58 | 1005.3 |
| 20260505120954 | 19 | 226 | 6.4 | 16.1 | 0.00 | 0.15 | 0.00 | 57 | 1005.3 |
| 20260505120943 | 19 | 269 | 6.4 | 12.9 | 0.00 | 0.15 | 0.00 | 56 | 1005.3 |
| 20260505120937 | 19 | 250 | 6.4 | 12.9 | 0.00 | 0.15 | 0.00 | 57 | 1005.3 |
| 20260505120933 | 19 | 257 | 6.4 | 16.1 | 0.00 | 0.15 | 0.00 | 57 | 1005.4 |
| 20260505120925 | 19 | 263 | 6.4 | 11.3 | 0.00 | 0.15 | 0.00 | 56 | 1005.3 |
| 20260505120920 | 19 | 268 | 6.4 | 12.9 | 0.00 | 0.15 | 0.00 | 56 | 1005.3 |
| 20260505120705 | 19 | 269 | 6.4 | 12.9 | 0.00 | 0.15 | 0.00 | 56 | 1005.4 |
| 20260505120353 | 19 | 256 | 6.4 | 12.9 | 0.00 | 0.15 | 0.00 | 56 | 1005.3 |
| 20260505120251 | 19 | 275 | 8.0 | 12.9 | 0.00 | 0.15 | 0.00 | 56 | 1005.3 |
| 20260505120151 | 19 | 303 | 8.0 | 14.5 | 0.00 | 0.15 | 0.00 | 55 | 1005.3 |
| 20260505120052 | 19 | 261 | 8.0 | 14.5 | 0.00 | 0.15 | 0.00 | 56 | 1005.3 |
| 20260505115952 | 19 | 309 | 8.0 | 14.5 | 0.00 | 0.15 | 0.00 | 56 | 1005.3 |
| 20260505115852 | 19 | 249 | 8.0 | 14.5 | 0.00 | 0.15 | 0.00 | 55 | 1005.3 |
| 20260505115752 | 20 | 260 | 8.0 | 14.5 | 0.00 | 0.15 | 0.00 | 55 | 1005.3 |
| 20260505115652 | 20 | 234 | 6.4 | 14.5 | 0.00 | 0.15 | 0.00 | 56 | 1005.3 |
| 20260505115601 | 20 | 243 | 6.4 | 14.5 | 0.00 | 0.15 | 0.00 | 56 | 1005.3 |
| 20260505115552 | 20 | 246 | 6.4 | 14.5 | 0.00 | 0.15 | 0.00 | 56 | 1005.2 |
| 20260505115451 | 20 | 266 | 6.4 | 14.5 | 0.00 | 0.15 | 0.00 | 55 | 1005.3 |
| 20260505115347 | 20 | 302 | 6.4 | 14.5 | 0.00 | 0.15 | 0.00 | 56 | 1005.3 |
| 20260505115245 | 20 | 259 | 6.4 | 14.5 | 0.00 | 0.15 | 0.00 | 58 | 1005.2 |
| 20260505115146 | 20 | 256 | 6.4 | 14.5 | 0.00 | 0.15 | 0.00 | 57 | 1005.3 |
| 20260505115101 | 20 | 269 | 6.4 | 14.5 | 0.00 | 0.15 | 0.00 | 56 | 1005.3 |
| 20260505115046 | 20 | 259 | 6.4 | 14.5 | 0.00 | 0.15 | 0.00 | 56 | 1005.2 |
| 20260505114946 | 20 | 271 | 6.4 | 14.5 | 0.00 | 0.15 | 0.00 | 57 | 1005.3 |
| 20260505114842 | 20 | 295 | 8.0 | 14.5 | 0.00 | 0.15 | 0.00 | 57 | 1005.3 |
| 20260505114742 | 20 | 272 | 8.0 | 14.5 | 0.00 | 0.15 | 0.00 | 56 | 1005.2 |
| 20260505114642 | 20 | 236 | 8.0 | 14.5 | 0.00 | 0.15 | 0.00 | 57 | 1005.2 |
| 20260505114601 | 20 | 230 | 8.0 | 14.5 | 0.00 | 0.15 | 0.00 | 56 | 1005.2 |
| 20260505114539 | 20 | 277 | 8.0 | 14.5 | 0.00 | 0.15 | 0.00 | 56 | 1005.3 |
| 20260505114437 | 20 | 250 | 8.0 | 14.5 | 0.00 | 0.15 | 0.00 | 55 | 1005.2 |
| 20260505114333 | 20 | 267 | 8.0 | 12.9 | 0.00 | 0.15 | 0.00 | 55 | 1005.2 |
| 20260505114232 | 20 | 243 | 8.0 | 12.9 | 0.00 | 0.15 | 0.00 | 56 | 1005.2 |
| 20260505114132 | 20 | 276 | 8.0 | 14.5 | 0.00 | 0.15 | 0.00 | 56 | 1005.2 |
| 20260505114101 | 20 | 272 | 8.0 | 14.5 | 0.00 | 0.15 | 0.00 | 56 | 1005.2 |
| 20260505114031 | 20 | 229 | 8.0 | 14.5 | 0.00 | 0.15 | 0.00 | 56 | 1005.2 |
| 20260505113931 | 20 | 247 | 8.0 | 14.5 | 0.00 | 0.15 | 0.00 | 56 | 1005.2 |
| 20260505113830 | 20 | 262 | 8.0 | 14.5 | 0.00 | 0.15 | 0.00 | 56 | 1005.2 |
| 20260505113729 | 20 | 270 | 8.0 | 14.5 | 0.00 | 0.15 | 0.00 | 54 | 1005.1 |
| 20260505113629 | 20 | 301 | 8.0 | 14.5 | 0.00 | 0.15 | 0.00 | 55 | 1005.2 |
| 20260505113601 | 20 | 306 | 8.0 | 14.5 | 0.00 | 0.15 | 0.00 | 55 | 1005.2 |
| 20260505113530 | 20 | 267 | 8.0 | 14.5 | 0.00 | 0.15 | 0.00 | 54 | 1005.2 |
| 20260505113430 | 20 | 305 | 8.0 | 14.5 | 0.00 | 0.15 | 0.00 | 54 | 1005.1 |
| 20260505113329 | 20 | 319 | 8.0 | 14.5 | 0.00 | 0.15 | 0.00 | 53 | 1005.1 |
| 20260505113229 | 20 | 262 | 6.4 | 14.5 | 0.00 | 0.15 | 0.00 | 53 | 1005.1 |
| 20260505113129 | 20 | 246 | 6.4 | 14.5 | 0.00 | 0.15 | 0.00 | 53 | 1005.1 |
| 20260505113101 | 20 | 290 | 6.4 | 14.5 | 0.00 | 0.15 | 0.00 | 53 | 1005.1 |
| 20260505113029 | 20 | 263 | 6.4 | 14.5 | 0.00 | 0.15 | 0.00 | 54 | 1005.1 |
| 20260505112929 | 20 | 293 | 6.4 | 14.5 | 0.00 | 0.15 | 0.00 | 54 | 1005.0 |
| 20260505112829 | 20 | 271 | 6.4 | 12.9 | 0.00 | 0.15 | 0.00 | 54 | 1005.1 |
| 20260505112729 | 20 | 261 | 6.4 | 12.9 | 0.00 | 0.15 | 0.00 | 55 | 1005.1 |
| 20260505112628 | 20 | 283 | 4.8 | 12.9 | 0.00 | 0.15 | 0.00 | 55 | 1005.1 |
| 20260505112601 | 20 | 266 | 4.8 | 12.9 | 0.00 | 0.15 | 0.00 | 56 | 1005.1 |
| 20260505112527 | 20 | 279 | 4.8 | 11.3 | 0.00 | 0.15 | 0.00 | 55 | 1005.1 |
| 20260505112427 | 20 | 298 | 4.8 | 11.3 | 0.00 | 0.15 | 0.00 | 55 | 1005.1 |
| 20260505112327 | 20 | 333 | 4.8 | 11.3 | 0.00 | 0.15 | 0.00 | 54 | 1005.1 |
| 20260505112227 | 20 | 298 | 4.8 | 11.3 | 0.00 | 0.15 | 0.00 | 55 | 1005.1 |
| 20260505112122 | 20 | 292 | 4.8 | 14.5 | 0.00 | 0.15 | 0.00 | 55 | 1005.1 |
| 20260505112102 | 20 | 304 | 4.8 | 14.5 | 0.00 | 0.15 | 0.00 | 55 | 1005.1 |
| 20260505112022 | 20 | 292 | 4.8 | 14.5 | 0.00 | 0.15 | 0.00 | 54 | 1005.1 |
| 20260505111922 | 20 | 319 | 4.8 | 14.5 | 0.00 | 0.15 | 0.00 | 54 | 1005.1 |
| 20260505111822 | 20 | 319 | 4.8 | 14.5 | 0.00 | 0.15 | 0.00 | 55 | 1005.1 |
| 20260505111720 | 20 | 305 | 4.8 | 14.5 | 0.00 | 0.15 | 0.00 | 55 | 1005.1 |
| 20260505111613 | 20 | 309 | 6.4 | 14.5 | 0.00 | 0.15 | 0.00 | 55 | 1005.1 |
| 20260505111601 | 20 | 309 | 6.4 | 14.5 | 0.00 | 0.15 | 0.00 | 54 | 1005.1 |
| 20260505111513 | 20 | 314 | 6.4 | 14.5 | 0.00 | 0.15 | 0.00 | 55 | 1005.1 |
| 20260505111414 | 20 | 333 | 6.4 | 14.5 | 0.00 | 0.15 | 0.00 | 55 | 1005.1 |
| 20260505111314 | 20 | 342 | 6.4 | 14.5 | 0.00 | 0.15 | 0.00 | 56 | 1005.1 |
| 20260505111213 | 20 | 348 | 6.4 | 14.5 | 0.00 | 0.15 | 0.00 | 56 | 1005.1 |
| 20260505111113 | 20 | 305 | 6.4 | 12.9 | 0.00 | 0.15 | 0.00 | 57 | 1005.1 |
| 20260505111101 | 20 | 308 | 6.4 | 12.9 | 0.00 | 0.15 | 0.00 | 57 | 1005.1 |
| 20260505111014 | 20 | 303 | 6.4 | 12.9 | 0.00 | 0.15 | 0.00 | 57 | 1005.1 |
| 20260505110914 | 20 | 263 | 6.4 | 12.9 | 0.00 | 0.15 | 0.00 | 57 | 1005.1 |
| 20260505110814 | 20 | 264 | 6.4 | 12.9 | 0.00 | 0.15 | 0.00 | 58 | 1005.1 |
| 20260505110714 | 20 | 272 | 6.4 | 12.9 | 0.00 | 0.15 | 0.00 | 57 | 1005.1 |
| 20260505110613 | 20 | 265 | 6.4 | 12.9 | 0.00 | 0.15 | 0.00 | 57 | 1005.1 |
| 20260505110601 | 20 | 278 | 6.4 | 12.9 | 0.00 | 0.15 | 0.00 | 57 | 1005.1 |
| 20260505110513 | 20 | 264 | 6.4 | 12.9 | 0.00 | 0.15 | 0.00 | 57 | 1005.0 |
| 20260505110410 | 20 | 263 | 6.4 | 12.9 | 0.00 | 0.15 | 0.00 | 60 | 1005.0 |
| 20260505110310 | 20 | 260 | 6.4 | 12.9 | 0.00 | 0.15 | 0.00 | 60 | 1005.1 |
| 20260505110210 | 20 | 304 | 6.4 | 12.9 | 0.00 | 0.15 | 0.00 | 60 | 1005.1 |
| 20260505110110 | 20 | 312 | 6.4 | 12.9 | 0.00 | 0.15 | 0.00 | 60 | 1005.1 |
| 20260505102201 | 18 | 148 | 1.6 | 4.8 | 0.00 | 0.15 | 0.00 | 61 | 1005.3 |
| 20260505102101 | 18 | 148 | 1.6 | 4.8 | 0.00 | 0.15 | 0.00 | 62 | 1005.3 |
| 20260505102001 | 18 | 148 | 1.6 | 4.8 | 0.00 | 0.15 | 0.00 | 58 | 1005.3 |
| 20260505101901 | 18 | 148 | 1.6 | 8.0 | 0.00 | 0.15 | 0.00 | 57 | 1005.2 |
| 20260505101825 | 18 | 148 | 1.6 | 8.0 | 0.00 | 0.15 | 0.00 | 58 | 1005.3 |
| 20260505101816 | 18 | 148 | 1.6 | 8.0 | 0.00 | 0.15 | 0.00 | 56 | 1005.2 |
| 20260505101812 | 18 | 148 | 1.6 | 8.0 | 0.00 | 0.15 | 0.00 | 59 | 1005.2 |
| 20260505101500 | 18 | 148 | 1.6 | 8.0 | 0.00 | 0.15 | 0.00 | 56 | 1005.3 |
| 20260505101400 | 18 | 148 | 1.6 | 8.0 | 0.00 | 0.15 | 0.00 | 56 | 1005.3 |
| 20260505101300 | 18 | 148 | 3.2 | 8.0 | 0.00 | 0.15 | 0.00 | 57 | 1005.3 |
| 20260505101200 | 18 | 139 | 3.2 | 8.0 | 0.00 | 0.15 | 0.00 | 56 | 1005.2 |
| 20260505101101 | 18 | 142 | 3.2 | 8.0 | 0.00 | 0.15 | 0.00 | 57 | 1005.2 |
| 20260505101001 | 18 | 143 | 3.2 | 8.0 | 0.00 | 0.15 | 0.00 | 57 | 1005.2 |
| 20260505100902 | 18 | 144 | 3.2 | 6.4 | 0.00 | 0.15 | 0.00 | 57 | 1005.2 |
| 20260505100801 | 18 | 144 | 3.2 | 6.4 | 0.00 | 0.15 | 0.00 | 57 | 1005.2 |
| 20260505100659 | 18 | 144 | 3.2 | 6.4 | 0.00 | 0.15 | 0.00 | 57 | 1005.2 |
| 20260505100603 | 18 | 146 | 3.2 | 6.4 | 0.00 | 0.15 | 0.00 | 56 | 1005.3 |
| 20260505100559 | 18 | 146 | 3.2 | 6.4 | 0.00 | 0.15 | 0.00 | 56 | 1005.3 |
| 20260505100500 | 18 | 147 | 3.2 | 6.4 | 0.00 | 0.15 | 0.00 | 56 | 1005.3 |
| 20260505100400 | 18 | 148 | 3.2 | 6.4 | 0.00 | 0.15 | 0.00 | 58 | 1005.3 |
| 20260505100300 | 18 | 192 | 3.2 | 6.4 | 0.00 | 0.15 | 0.00 | 61 | 1005.3 |
| 20260505100200 | 18 | 192 | 3.2 | 6.4 | 0.00 | 0.15 | 0.00 | 59 | 1005.4 |
| 20260505100059 | 18 | 198 | 4.8 | 9.7 | 0.00 | 0.15 | 0.00 | 59 | 1005.4 |
| 20260505095959 | 18 | 198 | 4.8 | 9.7 | 0.00 | 0.15 | 0.00 | 58 | 1005.4 |
| 20260505095900 | 18 | 200 | 4.8 | 9.7 | 0.00 | 0.15 | 0.00 | 58 | 1005.4 |
| 20260505095800 | 18 | 172 | 4.8 | 9.7 | 0.00 | 0.15 | 0.00 | 61 | 1005.4 |
| 20260505095700 | 18 | 196 | 4.8 | 9.7 | 0.00 | 0.15 | 0.00 | 60 | 1005.5 |
| 20260505095604 | 18 | 147 | 4.8 | 9.7 | 0.00 | 0.15 | 0.00 | 62 | 1005.5 |
| 20260505095600 | 18 | 147 | 4.8 | 9.7 | 0.00 | 0.15 | 0.00 | 62 | 1005.5 |
| 20260505095459 | 18 | 182 | 4.8 | 9.7 | 0.00 | 0.15 | 0.00 | 61 | 1005.5 |
| 20260505095359 | 18 | 182 | 4.8 | 9.7 | 0.00 | 0.15 | 0.00 | 62 | 1005.5 |
| 20260505095259 | 18 | 209 | 4.8 | 9.7 | 0.00 | 0.15 | 0.00 | 63 | 1005.4 |
| 20260505095203 | 18 | 200 | 4.8 | 9.7 | 0.00 | 0.15 | 0.00 | 63 | 1005.5 |
| 20260505095104 | 18 | 194 | 3.2 | 9.7 | 0.00 | 0.15 | 0.00 | 62 | 1005.5 |
| 20260505095100 | 18 | 194 | 3.2 | 9.7 | 0.00 | 0.15 | 0.00 | 62 | 1005.5 |
| 20260505095000 | 18 | 198 | 3.2 | 9.7 | 0.00 | 0.15 | 0.00 | 61 | 1005.5 |
| 20260505094900 | 18 | 194 | 3.2 | 9.7 | 0.00 | 0.15 | 0.00 | 63 | 1005.5 |
| 20260505094755 | 18 | 192 | 3.2 | 9.7 | 0.00 | 0.15 | 0.00 | 63 | 1005.5 |
| 20260505094656 | 18 | 122 | 3.2 | 9.7 | 0.00 | 0.15 | 0.00 | 64 | 1005.5 |
| 20260505094601 | 18 | 122 | 3.2 | 9.7 | 0.00 | 0.15 | 0.00 | 63 | 1005.5 |
| 20260505094555 | 18 | 122 | 3.2 | 9.7 | 0.00 | 0.15 | 0.00 | 63 | 1005.5 |
| 20260505094455 | 18 | 121 | 3.2 | 9.7 | 0.00 | 0.15 | 0.00 | 65 | 1005.5 |
| 20260505094355 | 18 | 118 | 3.2 | 9.7 | 0.00 | 0.15 | 0.00 | 61 | 1005.5 |
| 20260505094255 | 18 | 139 | 1.6 | 9.7 | 0.00 | 0.15 | 0.00 | 62 | 1005.5 |
| 20260505094200 | 18 | 120 | 1.6 | 6.4 | 0.00 | 0.15 | 0.00 | 63 | 1005.5 |
| 20260505094103 | 18 | 192 | 1.6 | 6.4 | 0.00 | 0.15 | 0.00 | 62 | 1005.5 |
| 20260505094056 | 18 | 192 | 1.6 | 6.4 | 0.00 | 0.15 | 0.00 | 62 | 1005.5 |
| 20260505093956 | 18 | 192 | 1.6 | 6.4 | 0.00 | 0.15 | 0.00 | 61 | 1005.5 |
| 20260505093856 | 18 | 142 | 1.6 | 6.4 | 0.00 | 0.15 | 0.00 | 64 | 1005.5 |
| 20260505093755 | 18 | 142 | 1.6 | 6.4 | 0.00 | 0.15 | 0.00 | 66 | 1005.5 |
| 20260505093658 | 18 | 141 | 1.6 | 6.4 | 0.00 | 0.15 | 0.00 | 65 | 1005.5 |
| 20260505093601 | 17 | 144 | 1.6 | 6.4 | 0.00 | 0.15 | 0.00 | 65 | 1005.5 |
| 20260505093553 | 17 | 144 | 1.6 | 6.4 | 0.00 | 0.15 | 0.00 | 65 | 1005.5 |
| 20260505093452 | 17 | 176 | 1.6 | 9.7 | 0.00 | 0.15 | 0.00 | 66 | 1005.5 |
| 20260505093352 | 17 | 196 | 3.2 | 9.7 | 0.00 | 0.15 | 0.00 | 67 | 1005.5 |
| 20260505093252 | 17 | 196 | 3.2 | 9.7 | 0.00 | 0.15 | 0.00 | 64 | 1005.5 |
| 20260505093153 | 17 | 196 | 3.2 | 9.7 | 0.00 | 0.15 | 0.00 | 65 | 1005.5 |
| 20260505093102 | 17 | 196 | 3.2 | 9.7 | 0.00 | 0.15 | 0.00 | 65 | 1005.5 |
| 20260505093047 | 17 | 173 | 1.6 | 9.7 | 0.00 | 0.15 | 0.00 | 65 | 1005.5 |
| 20260505092947 | 17 | 173 | 3.2 | 9.7 | 0.00 | 0.15 | 0.00 | 67 | 1005.5 |
| 20260505092845 | 17 | 173 | 3.2 | 9.7 | 0.00 | 0.15 | 0.00 | 68 | 1005.5 |
| 20260505092744 | 17 | 173 | 3.2 | 9.7 | 0.00 | 0.15 | 0.00 | 67 | 1005.6 |
| 20260505092644 | 17 | 173 | 3.2 | 9.7 | 0.00 | 0.15 | 0.00 | 65 | 1005.6 |
| 20260505092601 | 17 | 173 | 3.2 | 9.7 | 0.00 | 0.15 | 0.00 | 65 | 1005.6 |
| 20260505092541 | 17 | 173 | 3.2 | 9.7 | 0.00 | 0.15 | 0.00 | 65 | 1005.6 |
| 20260505092437 | 17 | 127 | 3.2 | 8.0 | 0.00 | 0.15 | 0.00 | 66 | 1005.6 |
| 20260505092337 | 17 | 121 | 1.6 | 8.0 | 0.00 | 0.15 | 0.00 | 66 | 1005.7 |
| 20260505092237 | 17 | 135 | 1.6 | 4.8 | 0.00 | 0.15 | 0.00 | 67 | 1005.7 |
| 20260505092138 | 17 | 118 | 1.6 | 4.8 | 0.00 | 0.15 | 0.00 | 69 | 1005.7 |
| 20260505092101 | 17 | 151 | 1.6 | 4.8 | 0.00 | 0.15 | 0.00 | 69 | 1005.7 |
| 20260505092038 | 17 | 151 | 1.6 | 4.8 | 0.00 | 0.15 | 0.00 | 68 | 1005.7 |
| 20260505091938 | 17 | 151 | 1.6 | 4.8 | 0.00 | 0.15 | 0.00 | 68 | 1005.8 |
| 20260505091837 | 17 | 151 | 1.6 | 4.8 | 0.00 | 0.15 | 0.00 | 68 | 1005.8 |
| 20260505091735 | 17 | 151 | 1.6 | 4.8 | 0.00 | 0.15 | 0.00 | 66 | 1005.8 |
| 20260505091635 | 17 | 151 | 1.6 | 4.8 | 0.00 | 0.15 | 0.00 | 69 | 1005.8 |
| 20260505091600 | 17 | 151 | 1.6 | 4.8 | 0.00 | 0.15 | 0.00 | 69 | 1005.8 |
| 20260505091535 | 17 | 151 | 1.6 | 4.8 | 0.00 | 0.15 | 0.00 | 68 | 1005.8 |
| 20260505091436 | 17 | 151 | 1.6 | 4.8 | 0.00 | 0.15 | 0.00 | 67 | 1005.8 |
| 20260505091333 | 17 | 168 | 1.6 | 3.2 | 0.00 | 0.15 | 0.00 | 69 | 1005.8 |
| 20260505091233 | 17 | 168 | 1.6 | 3.2 | 0.00 | 0.15 | 0.00 | 69 | 1005.9 |
| 20260505091134 | 17 | 169 | 1.6 | 3.2 | 0.00 | 0.15 | 0.00 | 68 | 1005.8 |
| 20260505091100 | 17 | 169 | 1.6 | 3.2 | 0.00 | 0.15 | 0.00 | 68 | 1005.8 |
| 20260505091029 | 17 | 169 | 1.6 | 3.2 | 0.00 | 0.15 | 0.00 | 68 | 1005.8 |
| 20260505090929 | 17 | 169 | 1.6 | 3.2 | 0.00 | 0.15 | 0.00 | 69 | 1005.8 |
| 20260505090829 | 17 | 169 | 1.6 | 3.2 | 0.00 | 0.15 | 0.00 | 69 | 1005.8 |
| 20260505090729 | 17 | 169 | 1.6 | 3.2 | 0.00 | 0.15 | 0.00 | 68 | 1005.8 |
| 20260505090629 | 17 | 169 | 1.6 | 3.2 | 0.00 | 0.15 | 0.00 | 68 | 1005.9 |
| 20260505090601 | 17 | 169 | 1.6 | 3.2 | 0.00 | 0.15 | 0.00 | 69 | 1005.9 |
| 20260505090529 | 17 | 169 | 1.6 | 3.2 | 0.00 | 0.15 | 0.00 | 70 | 1005.9 |
| 20260505090430 | 17 | 169 | 1.6 | 6.4 | 0.00 | 0.15 | 0.00 | 69 | 1005.9 |
| 20260505090335 | 17 | 169 | 1.6 | 6.4 | 0.00 | 0.15 | 0.00 | 70 | 1005.9 |
| 20260505090229 | 16 | 169 | 1.6 | 6.4 | 0.00 | 0.15 | 0.00 | 70 | 1005.9 |
| 20260505090128 | 17 | 169 | 1.6 | 6.4 | 0.00 | 0.15 | 0.00 | 69 | 1006.0 |
| 20260505090101 | 16 | 169 | 1.6 | 6.4 | 0.00 | 0.15 | 0.00 | 69 | 1006.0 |
| 20260505090029 | 16 | 169 | 1.6 | 6.4 | 0.00 | 0.15 | 0.00 | 69 | 1006.0 |
| 20260505085930 | 16 | 169 | 1.6 | 6.4 | 0.00 | 0.15 | 0.00 | 70 | 1005.9 |
| 20260505085829 | 17 | 169 | 1.6 | 6.4 | 0.00 | 0.15 | 0.00 | 70 | 1006.0 |
| 20260505085729 | 16 | 169 | 1.6 | 6.4 | 0.00 | 0.15 | 0.00 | 69 | 1006.0 |
| 20260505085629 | 16 | 169 | 1.6 | 6.4 | 0.00 | 0.15 | 0.00 | 72 | 1006.0 |
| 20260505085601 | 16 | 169 | 1.6 | 6.4 | 0.00 | 0.15 | 0.00 | 71 | 1006.0 |
| 20260505085529 | 16 | 169 | 1.6 | 6.4 | 0.00 | 0.15 | 0.00 | 71 | 1006.0 |
| 20260505085429 | 16 | 128 | 1.6 | 4.8 | 0.00 | 0.15 | 0.00 | 71 | 1006.0 |
| 20260505085328 | 16 | 104 | 1.6 | 6.4 | 0.00 | 0.15 | 0.00 | 73 | 1006.0 |
| 20260505085228 | 16 | 101 | 1.6 | 6.4 | 0.00 | 0.15 | 0.00 | 73 | 1006.0 |
| 20260505085128 | 16 | 101 | 1.6 | 6.4 | 0.00 | 0.15 | 0.00 | 73 | 1006.0 |
| 20260505085101 | 16 | 101 | 1.6 | 6.4 | 0.00 | 0.15 | 0.00 | 74 | 1006.0 |
| 20260505085029 | 16 | 101 | 1.6 | 6.4 | 0.00 | 0.15 | 0.00 | 74 | 1006.0 |
| 20260505084929 | 16 | 96 | 1.6 | 6.4 | 0.00 | 0.15 | 0.00 | 74 | 1006.0 |
| 20260505084829 | 16 | 95 | 1.6 | 6.4 | 0.00 | 0.15 | 0.00 | 72 | 1006.0 |
| 20260505084729 | 16 | 86 | 1.6 | 6.4 | 0.00 | 0.15 | 0.00 | 74 | 1006.0 |
| 20260505084628 | 16 | 86 | 1.6 | 6.4 | 0.00 | 0.15 | 0.00 | 74 | 1006.0 |
| 20260505084601 | 16 | 85 | 1.6 | 6.4 | 0.00 | 0.15 | 0.00 | 74 | 1006.0 |
| 20260505084528 | 16 | 73 | 1.6 | 6.4 | 0.00 | 0.15 | 0.00 | 74 | 1006.0 |
| 20260505084428 | 16 | 72 | 1.6 | 6.4 | 0.00 | 0.15 | 0.00 | 75 | 1006.0 |
| 20260505084329 | 16 | 126 | 1.6 | 6.4 | 0.00 | 0.15 | 0.00 | 75 | 1006.1 |
| 20260505084229 | 16 | 126 | 1.6 | 6.4 | 0.00 | 0.15 | 0.00 | 74 | 1006.1 |
| 20260505084134 | 16 | 126 | 1.6 | 6.4 | 0.00 | 0.15 | 0.00 | 76 | 1006.1 |
| 20260505084101 | 16 | 126 | 1.6 | 6.4 | 0.00 | 0.15 | 0.00 | 76 | 1006.1 |
| 20260505084027 | 16 | 126 | 1.6 | 9.7 | 0.00 | 0.15 | 0.00 | 76 | 1006.2 |
| 20260505083927 | 16 | 126 | 3.2 | 9.7 | 0.00 | 0.15 | 0.00 | 74 | 1006.2 |
| 20260505083825 | 16 | 126 | 3.2 | 9.7 | 0.00 | 0.15 | 0.00 | 73 | 1006.2 |
| 20260505083723 | 16 | 126 | 3.2 | 9.7 | 0.00 | 0.15 | 0.00 | 74 | 1006.2 |
| 20260505083623 | 16 | 128 | 1.6 | 9.7 | 0.00 | 0.15 | 0.00 | 74 | 1006.2 |
| 20260505083601 | 16 | 127 | 1.6 | 9.7 | 0.00 | 0.15 | 0.00 | 74 | 1006.2 |
| 20260505083521 | 16 | 126 | 1.6 | 9.7 | 0.00 | 0.15 | 0.00 | 76 | 1006.2 |
| 20260505083419 | 16 | 126 | 1.6 | 9.7 | 0.00 | 0.15 | 0.00 | 76 | 1006.2 |
| 20260505083331 | 16 | 126 | 3.2 | 9.7 | 0.00 | 0.15 | 0.00 | 76 | 1006.2 |
| 20260505083325 | 16 | 126 | 1.6 | 9.7 | 0.00 | 0.15 | 0.00 | 75 | 1006.3 |
| 20260505083321 | 16 | 126 | 3.2 | 9.7 | 0.00 | 0.15 | 0.00 | 75 | 1006.3 |
| 20260505083313 | 16 | 127 | 3.2 | 9.7 | 0.00 | 0.15 | 0.00 | 76 | 1006.2 |
| 20260505083011 | 16 | 126 | 1.6 | 8.0 | 0.00 | 0.15 | 0.00 | 77 | 1006.2 |
| 20260505082911 | 15 | 103 | 1.6 | 6.4 | 0.00 | 0.15 | 0.00 | 77 | 1006.2 |
| 20260505082826 | 15 | 102 | 1.6 | 6.4 | 0.00 | 0.15 | 0.00 | 76 | 1006.2 |
| 20260505082822 | 15 | 93 | 1.6 | 6.4 | 0.00 | 0.15 | 0.00 | 78 | 1006.2 |
| 20260505082813 | 15 | 114 | 3.2 | 6.4 | 0.00 | 0.15 | 0.00 | 77 | 1006.2 |
| 20260505082507 | 15 | 114 | 3.2 | 6.4 | 0.00 | 0.15 | 0.00 | 78 | 1006.2 |
| 20260505082407 | 15 | 115 | 3.2 | 6.4 | 0.00 | 0.15 | 0.00 | 77 | 1006.2 |
| 20260505082307 | 15 | 115 | 3.2 | 6.4 | 0.00 | 0.15 | 0.00 | 77 | 1006.2 |
| 20260505082207 | 15 | 122 | 3.2 | 6.4 | 0.00 | 0.15 | 0.00 | 77 | 1006.3 |
| 20260505082108 | 15 | 123 | 3.2 | 6.4 | 0.00 | 0.15 | 0.00 | 77 | 1006.2 |
| 20260505082100 | 15 | 123 | 3.2 | 6.4 | 0.00 | 0.15 | 0.00 | 78 | 1006.2 |
| 20260505082007 | 15 | 122 | 3.2 | 6.4 | 0.00 | 0.15 | 0.00 | 78 | 1006.2 |
| 20260505081907 | 15 | 122 | 3.2 | 6.4 | 0.00 | 0.15 | 0.00 | 78 | 1006.2 |
| 20260505081805 | 15 | 121 | 3.2 | 6.4 | 0.00 | 0.15 | 0.00 | 78 | 1006.2 |
| 20260505081705 | 15 | 81 | 1.6 | 4.8 | 0.00 | 0.15 | 0.00 | 78 | 1006.2 |
| 20260505081605 | 15 | 46 | 1.6 | 4.8 | 0.00 | 0.15 | 0.00 | 79 | 1006.2 |
| 20260505081601 | 15 | 37 | 1.6 | 4.8 | 0.00 | 0.15 | 0.00 | 78 | 1006.2 |
| 20260505081505 | 15 | 336 | 1.6 | 4.8 | 0.00 | 0.15 | 0.00 | 79 | 1006.2 |
| 20260505081406 | 15 | 337 | 1.6 | 4.8 | 0.00 | 0.15 | 0.00 | 79 | 1006.3 |
| 20260505081325 | 14 | 337 | 1.6 | 4.8 | 0.00 | 0.15 | 0.00 | 79 | 1006.2 |
| 20260505081321 | 14 | 337 | 1.6 | 4.8 | 0.00 | 0.15 | 0.00 | 79 | 1006.3 |
| 20260505081312 | 14 | 338 | 1.6 | 4.8 | 0.00 | 0.15 | 0.00 | 80 | 1006.3 |
| 20260505081002 | 14 | 338 | 1.6 | 4.8 | 0.00 | 0.15 | 0.00 | 80 | 1006.3 |
| 20260505080901 | 14 | 338 | 1.6 | 4.8 | 0.00 | 0.15 | 0.00 | 80 | 1006.3 |
| 20260505080826 | 14 | 340 | 1.6 | 4.8 | 0.00 | 0.15 | 0.00 | 79 | 1006.3 |
| 20260505080822 | 14 | 340 | 1.6 | 4.8 | 0.00 | 0.15 | 0.00 | 79 | 1006.3 |
| 20260505080813 | 14 | 340 | 1.6 | 4.8 | 0.00 | 0.15 | 0.00 | 80 | 1006.3 |
| 20260505080501 | 14 | 337 | 1.6 | 4.8 | 0.00 | 0.15 | 0.00 | 80 | 1006.3 |
| 20260505080401 | 14 | 337 | 1.6 | 4.8 | 0.00 | 0.15 | 0.00 | 80 | 1006.4 |
| 20260505080301 | 14 | 337 | 1.6 | 4.8 | 0.00 | 0.15 | 0.00 | 80 | 1006.3 |
| 20260505080201 | 14 | 336 | 1.6 | 4.8 | 0.00 | 0.15 | 0.00 | 80 | 1006.4 |
| 20260505080001 | 14 | 336 | 1.6 | 4.8 | 0.00 | 0.15 | 0.00 | 81 | 1006.4 |
| 20260505075901 | 13 | 336 | 1.6 | 4.8 | 0.00 | 0.15 | 0.00 | 80 | 1006.4 |
| 20260505075824 | 13 | 336 | 1.6 | 4.8 | 0.00 | 0.15 | 0.00 | 81 | 1006.4 |
| 20260505075820 | 13 | 340 | 1.6 | 3.2 | 0.00 | 0.15 | 0.00 | 81 | 1006.4 |
| 20260505075811 | 13 | 340 | 1.6 | 3.2 | 0.00 | 0.15 | 0.00 | 81 | 1006.4 |
| 20260505075500 | 13 | 340 | 0.0 | 3.2 | 0.00 | 0.15 | 0.00 | 80 | 1006.4 |
| 20260505075400 | 13 | 340 | 0.0 | 3.2 | 0.00 | 0.15 | 0.00 | 79 | 1006.4 |
| 20260505075325 | 13 | 340 | 0.0 | 3.2 | 0.00 | 0.15 | 0.00 | 80 | 1006.4 |
| 20260505075320 | 13 | 340 | 1.6 | 4.8 | 0.00 | 0.15 | 0.00 | 81 | 1006.4 |
| 20260505075312 | 13 | 340 | 1.6 | 4.8 | 0.00 | 0.15 | 0.00 | 82 | 1006.3 |
| 20260505075000 | 13 | 339 | 0.0 | 4.8 | 0.00 | 0.15 | 0.00 | 84 | 1006.3 |
| 20260505074900 | 13 | 339 | 1.6 | 4.8 | 0.00 | 0.15 | 0.00 | 83 | 1006.3 |
| 20260505074800 | 13 | 339 | 1.6 | 4.8 | 0.00 | 0.15 | 0.00 | 83 | 1006.3 |
| 20260505074700 | 13 | 339 | 1.6 | 4.8 | 0.00 | 0.15 | 0.00 | 83 | 1006.3 |
| 20260505074601 | 13 | 339 | 1.6 | 4.8 | 0.00 | 0.15 | 0.00 | 83 | 1006.3 |
| 20260505074501 | 13 | 338 | 1.6 | 4.8 | 0.00 | 0.15 | 0.00 | 83 | 1006.3 |
| 20260505074401 | 13 | 338 | 1.6 | 4.8 | 0.00 | 0.15 | 0.00 | 83 | 1006.4 |
| 20260505074301 | 13 | 338 | 1.6 | 4.8 | 0.00 | 0.15 | 0.00 | 84 | 1006.4 |
| 20260505074201 | 13 | 338 | 1.6 | 4.8 | 0.00 | 0.15 | 0.00 | 84 | 1006.4 |
| 20260505074101 | 13 | 338 | 1.6 | 4.8 | 0.00 | 0.15 | 0.00 | 84 | 1006.4 |
| 20260505074001 | 13 | 338 | 1.6 | 4.8 | 0.00 | 0.15 | 0.00 | 84 | 1006.5 |
| 20260505073901 | 13 | 338 | 1.6 | 4.8 | 0.00 | 0.15 | 0.00 | 84 | 1006.5 |
| 20260505073825 | 13 | 338 | 1.6 | 4.8 | 0.00 | 0.15 | 0.00 | 84 | 1006.4 |
| 20260505073821 | 13 | 338 | 1.6 | 4.8 | 0.00 | 0.15 | 0.00 | 84 | 1006.4 |
| 20260505073813 | 13 | 338 | 1.6 | 6.4 | 0.00 | 0.15 | 0.00 | 84 | 1006.4 |
| 20260505073501 | 13 | 338 | 3.2 | 6.4 | 0.00 | 0.15 | 0.00 | 84 | 1006.5 |
| 20260505073401 | 13 | 338 | 1.6 | 6.4 | 0.00 | 0.15 | 0.00 | 85 | 1006.4 |
| 20260505073301 | 13 | 338 | 1.6 | 6.4 | 0.00 | 0.15 | 0.00 | 86 | 1006.5 |
| 20260505073201 | 13 | 338 | 1.6 | 6.4 | 0.00 | 0.15 | 0.00 | 85 | 1006.5 |
| 20260505073106 | 13 | 338 | 1.6 | 6.4 | 0.00 | 0.15 | 0.00 | 85 | 1006.5 |
| 20260505073000 | 13 | 338 | 1.6 | 6.4 | 0.00 | 0.15 | 0.00 | 85 | 1006.5 |
| 20260505072900 | 12 | 338 | 3.2 | 6.4 | 0.00 | 0.15 | 0.00 | 86 | 1006.5 |
| 20260505072801 | 12 | 338 | 3.2 | 6.4 | 0.00 | 0.15 | 0.00 | 86 | 1006.5 |
| 20260505072701 | 12 | 338 | 3.2 | 6.4 | 0.00 | 0.15 | 0.00 | 86 | 1006.7 |
| 20260505072604 | 12 | 338 | 3.2 | 6.4 | 0.00 | 0.15 | 0.00 | 86 | 1006.7 |
| 20260505072501 | 12 | 55 | 1.6 | 4.8 | 0.00 | 0.15 | 0.00 | 86 | 1006.7 |
| 20260505072401 | 12 | 202 | 1.6 | 4.8 | 0.00 | 0.15 | 0.00 | 86 | 1006.7 |
| 20260505072320 | 12 | 203 | 1.6 | 4.8 | 0.00 | 0.15 | 0.00 | 86 | 1006.7 |
| 20260505072316 | 12 | 204 | 3.2 | 4.8 | 0.00 | 0.15 | 0.00 | 86 | 1006.8 |
| 20260505072312 | 12 | 204 | 3.2 | 4.8 | 0.00 | 0.15 | 0.00 | 86 | 1006.8 |
| 20260505072000 | 12 | 204 | 3.2 | 4.8 | 0.00 | 0.15 | 0.00 | 86 | 1006.8 |
| 20260505071900 | 12 | 204 | 3.2 | 4.8 | 0.00 | 0.15 | 0.00 | 86 | 1006.8 |
| 20260505071800 | 12 | 204 | 1.6 | 4.8 | 0.00 | 0.15 | 0.00 | 86 | 1006.9 |
| 20260505071701 | 12 | 198 | 1.6 | 4.8 | 0.00 | 0.15 | 0.00 | 86 | 1006.9 |
| 20260505071601 | 12 | 198 | 1.6 | 4.8 | 0.00 | 0.15 | 0.00 | 87 | 1006.9 |
| 20260505071500 | 12 | 198 | 1.6 | 4.8 | 0.00 | 0.15 | 0.00 | 87 | 1006.9 |
| 20260505071400 | 12 | 198 | 1.6 | 4.8 | 0.00 | 0.15 | 0.00 | 87 | 1006.9 |
| 20260505071320 | 12 | 198 | 1.6 | 4.8 | 0.00 | 0.15 | 0.00 | 88 | 1007.0 |
| 20260505071316 | 12 | 198 | 1.6 | 4.8 | 0.00 | 0.15 | 0.00 | 89 | 1007.0 |
| 20260505071312 | 12 | 198 | 1.6 | 4.8 | 0.00 | 0.15 | 0.00 | 90 | 1007.0 |
| 20260505071001 | 11 | 198 | 1.6 | 4.8 | 0.00 | 0.15 | 0.00 | 90 | 1007.0 |
| 20260505070901 | 11 | 198 | 1.6 | 4.8 | 0.00 | 0.15 | 0.00 | 90 | 1007.0 |
| 20260505070801 | 11 | 198 | 1.6 | 4.8 | 0.00 | 0.15 | 0.00 | 90 | 1007.1 |
| 20260505070701 | 11 | 198 | 1.6 | 4.8 | 0.00 | 0.15 | 0.00 | 90 | 1007.1 |
| 20260505070601 | 11 | 198 | 1.6 | 4.8 | 0.00 | 0.15 | 0.00 | 90 | 1007.1 |
| 20260505070501 | 11 | 198 | 1.6 | 4.8 | 0.00 | 0.15 | 0.00 | 90 | 1007.1 |
| 20260505070401 | 11 | 199 | 1.6 | 4.8 | 0.00 | 0.15 | 0.00 | 90 | 1007.1 |
| 20260505070301 | 11 | 198 | 1.6 | 8.0 | 0.00 | 0.15 | 0.00 | 90 | 1007.1 |
| 20260505070201 | 11 | 199 | 1.6 | 8.0 | 0.00 | 0.15 | 0.00 | 90 | 1007.1 |
| 20260505070001 | 11 | 200 | 1.6 | 8.0 | 0.00 | 0.15 | 0.00 | 90 | 1007.1 |
| 20260505065901 | 11 | 200 | 1.6 | 8.0 | 0.00 | 0.15 | 0.00 | 90 | 1007.1 |
| 20260505065801 | 11 | 200 | 3.2 | 8.0 | 0.00 | 0.15 | 0.00 | 90 | 1007.1 |
| 20260505065701 | 11 | 201 | 3.2 | 8.0 | 0.00 | 0.15 | 0.00 | 90 | 1007.1 |
| 20260505065601 | 11 | 201 | 3.2 | 8.0 | 0.00 | 0.15 | 0.00 | 90 | 1007.1 |
| 20260505065500 | 11 | 201 | 3.2 | 8.0 | 0.00 | 0.15 | 0.00 | 90 | 1007.1 |
| 20260505065401 | 11 | 204 | 3.2 | 8.0 | 0.00 | 0.15 | 0.00 | 90 | 1007.1 |
| 20260505065303 | 11 | 134 | 3.2 | 6.4 | 0.00 | 0.15 | 0.00 | 90 | 1007.2 |
| 20260505065201 | 11 | 134 | 3.2 | 6.4 | 0.00 | 0.15 | 0.00 | 91 | 1007.2 |
| 20260505065101 | 11 | 134 | 1.6 | 6.4 | 0.00 | 0.15 | 0.00 | 91 | 1007.2 |
| 20260505065001 | 11 | 126 | 1.6 | 6.4 | 0.00 | 0.15 | 0.00 | 91 | 1007.2 |
| 20260505064901 | 11 | 126 | 1.6 | 6.4 | 0.00 | 0.15 | 0.00 | 91 | 1007.2 |
| 20260505064821 | 11 | 125 | 1.6 | 6.4 | 0.00 | 0.15 | 0.00 | 91 | 1007.2 |
| 20260505064817 | 11 | 125 | 1.6 | 6.4 | 0.00 | 0.15 | 0.00 | 91 | 1007.2 |
| 20260505064813 | 10 | 125 | 1.6 | 6.4 | 0.00 | 0.15 | 0.00 | 91 | 1007.2 |
| 20260505064501 | 10 | 124 | 0.0 | 6.4 | 0.00 | 0.15 | 0.00 | 91 | 1007.2 |
| 20260505064401 | 10 | 124 | 0.0 | 6.4 | 0.00 | 0.15 | 0.00 | 91 | 1007.2 |
| 20260505064320 | 10 | 123 | 0.0 | 6.4 | 0.00 | 0.15 | 0.00 | 91 | 1007.2 |
| 20260505064316 | 10 | 123 | 0.0 | 1.6 | 0.00 | 0.15 | 0.00 | 91 | 1007.2 |
| 20260505064312 | 10 | 123 | 0.0 | 1.6 | 0.00 | 0.15 | 0.00 | 91 | 1007.2 |
| 20260505064001 | 10 | 123 | 0.0 | 1.6 | 0.00 | 0.15 | 0.00 | 91 | 1007.2 |
| 20260505063901 | 10 | 123 | 0.0 | 1.6 | 0.00 | 0.15 | 0.00 | 91 | 1007.2 |
| 20260505063801 | 10 | 123 | 0.0 | 1.6 | 0.00 | 0.15 | 0.00 | 92 | 1007.2 |
| 20260505063701 | 10 | 123 | 0.0 | 1.6 | 0.00 | 0.15 | 0.00 | 92 | 1007.2 |
| 20260505063600 | 10 | 123 | 0.0 | 1.6 | 0.00 | 0.15 | 0.00 | 92 | 1007.2 |
| 20260505063458 | 10 | 123 | 0.0 | 1.6 | 0.00 | 0.15 | 0.00 | 92 | 1007.3 |
| 20260505063359 | 10 | 123 | 0.0 | 1.6 | 0.00 | 0.15 | 0.00 | 92 | 1007.3 |
| 20260505063257 | 10 | 123 | 0.0 | 1.6 | 0.00 | 0.15 | 0.00 | 92 | 1007.3 |
| 20260505063157 | 10 | 123 | 0.0 | 1.6 | 0.00 | 0.15 | 0.00 | 92 | 1007.3 |
| 20260505063101 | 10 | 123 | 0.0 | 1.6 | 0.00 | 0.15 | 0.00 | 92 | 1007.3 |
| 20260505063055 | 10 | 123 | 0.0 | 1.6 | 0.00 | 0.15 | 0.00 | 92 | 1007.3 |
| 20260505062952 | 10 | 123 | 0.0 | 1.6 | 0.00 | 0.15 | 0.00 | 92 | 1007.3 |
| 20260505062847 | 10 | 123 | 0.0 | 1.6 | 0.00 | 0.15 | 0.00 | 92 | 1007.3 |
| 20260505062747 | 10 | 123 | 0.0 | 3.2 | 0.00 | 0.15 | 0.00 | 92 | 1007.3 |
| 20260505062647 | 10 | 123 | 0.0 | 3.2 | 0.00 | 0.15 | 0.00 | 92 | 1007.3 |
| 20260505062601 | 10 | 123 | 0.0 | 3.2 | 0.00 | 0.15 | 0.00 | 92 | 1007.3 |
| 20260505062547 | 10 | 123 | 0.0 | 3.2 | 0.00 | 0.15 | 0.00 | 92 | 1007.3 |
| 20260505062447 | 10 | 123 | 0.0 | 3.2 | 0.00 | 0.15 | 0.00 | 92 | 1007.3 |
| 20260505062346 | 10 | 123 | 0.0 | 3.2 | 0.00 | 0.15 | 0.00 | 92 | 1007.3 |
| 20260505062245 | 10 | 123 | 0.0 | 3.2 | 0.00 | 0.15 | 0.00 | 92 | 1007.4 |
| 20260505062145 | 10 | 123 | 0.0 | 3.2 | 0.00 | 0.15 | 0.00 | 92 | 1007.4 |
| 20260505062100 | 10 | 123 | 0.0 | 3.2 | 0.00 | 0.15 | 0.00 | 92 | 1007.4 |
| 20260505062043 | 10 | 123 | 1.6 | 3.2 | 0.00 | 0.15 | 0.00 | 92 | 1007.4 |
| 20260505061940 | 10 | 123 | 1.6 | 3.2 | 0.00 | 0.15 | 0.00 | 92 | 1007.3 |
| 20260505061835 | 10 | 123 | 0.0 | 3.2 | 0.00 | 0.15 | 0.00 | 92 | 1007.3 |
| 20260505061815 | 10 | 123 | 0.0 | 3.2 | 0.00 | 0.15 | 0.00 | 92 | 1007.3 |
| 20260505061811 | 10 | 123 | 0.0 | 3.2 | 0.00 | 0.15 | 0.00 | 92 | 1007.4 |
| 20260505061532 | 10 | 123 | 0.0 | 3.2 | 0.00 | 0.15 | 0.00 | 92 | 1007.3 |
| 20260505061431 | 10 | 125 | 0.0 | 3.2 | 0.00 | 0.15 | 0.00 | 92 | 1007.3 |
| 20260505061329 | 10 | 125 | 0.0 | 3.2 | 0.00 | 0.15 | 0.00 | 92 | 1007.3 |
| 20260505061321 | 10 | 125 | 0.0 | 1.6 | 0.00 | 0.15 | 0.00 | 93 | 1007.2 |
| 20260505061316 | 10 | 125 | 0.0 | 3.2 | 0.00 | 0.15 | 0.00 | 92 | 1007.3 |
| 20260505061312 | 10 | 125 | 0.0 | 3.2 | 0.00 | 0.15 | 0.00 | 92 | 1007.2 |
| 20260505061029 | 10 | 125 | 0.0 | 1.6 | 0.00 | 0.15 | 0.00 | 93 | 1007.3 |
| 20260505060929 | 10 | 125 | 0.0 | 3.2 | 0.00 | 0.15 | 0.00 | 93 | 1007.3 |
| 20260505060828 | 10 | 125 | 0.0 | 3.2 | 0.00 | 0.15 | 0.00 | 93 | 1007.3 |
| 20260505060729 | 10 | 125 | 0.0 | 3.2 | 0.00 | 0.15 | 0.00 | 93 | 1007.3 |
| 20260505060601 | 10 | 125 | 0.0 | 3.2 | 0.00 | 0.15 | 0.00 | 93 | 1007.3 |
| 20260505060529 | 10 | 125 | 0.0 | 3.2 | 0.00 | 0.15 | 0.00 | 93 | 1007.3 |
| 20260505060429 | 10 | 125 | 0.0 | 3.2 | 0.00 | 0.15 | 0.00 | 93 | 1007.3 |
| 20260505060329 | 10 | 125 | 0.0 | 3.2 | 0.00 | 0.15 | 0.00 | 93 | 1007.3 |
| 20260505060229 | 9 | 125 | 0.0 | 3.2 | 0.00 | 0.15 | 0.00 | 93 | 1007.3 |
| 20260505060129 | 9 | 125 | 0.0 | 3.2 | 0.00 | 0.15 | 0.00 | 94 | 1007.3 |
| 20260505060029 | 9 | 125 | 0.0 | 3.2 | 0.00 | 0.15 | 0.00 | 94 | 1007.3 |
| 20260505055929 | 9 | 125 | 0.0 | 3.2 | 0.00 | 0.15 | 0.00 | 94 | 1007.3 |
| 20260505055829 | 9 | 125 | 0.0 | 3.2 | 0.00 | 0.15 | 0.00 | 94 | 1007.3 |
| 20260505055729 | 9 | 125 | 0.0 | 3.2 | 0.00 | 0.15 | 0.00 | 94 | 1007.3 |
| 20260505055629 | 9 | 125 | 0.0 | 3.2 | 0.00 | 0.15 | 0.00 | 94 | 1007.3 |
| 20260505055529 | 9 | 125 | 0.0 | 3.2 | 0.00 | 0.15 | 0.00 | 94 | 1007.3 |
| 20260505055429 | 9 | 125 | 0.0 | 3.2 | 0.00 | 0.15 | 0.00 | 94 | 1007.3 |
| 20260505055328 | 9 | 125 | 0.0 | 3.2 | 0.00 | 0.15 | 0.00 | 94 | 1007.3 |
| 20260505055228 | 9 | 126 | 0.0 | 3.2 | 0.00 | 0.15 | 0.00 | 94 | 1007.3 |
| 20260505055128 | 9 | 126 | 0.0 | 3.2 | 0.00 | 0.15 | 0.00 | 94 | 1007.3 |
| 20260505055028 | 9 | 126 | 0.0 | 3.2 | 0.00 | 0.15 | 0.00 | 94 | 1007.2 |
| 20260505054929 | 9 | 126 | 0.0 | 3.2 | 0.00 | 0.15 | 0.00 | 94 | 1007.2 |
| 20260505054829 | 9 | 126 | 0.0 | 3.2 | 0.00 | 0.15 | 0.00 | 94 | 1007.3 |
| 20260505054729 | 9 | 126 | 1.6 | 3.2 | 0.00 | 0.15 | 0.00 | 94 | 1007.2 |
| 20260505054629 | 8 | 126 | 1.6 | 4.8 | 0.00 | 0.15 | 0.00 | 94 | 1007.3 |
| 20260505054528 | 8 | 126 | 1.6 | 4.8 | 0.00 | 0.15 | 0.00 | 94 | 1007.3 |
| 20260505054429 | 8 | 126 | 1.6 | 4.8 | 0.00 | 0.15 | 0.00 | 94 | 1007.3 |
| 20260505054329 | 8 | 126 | 1.6 | 4.8 | 0.00 | 0.15 | 0.00 | 94 | 1007.3 |
| 20260505054305 | 8 | 126 | 1.6 | 4.8 | 0.00 | 0.15 | 0.00 | 94 | 1007.2 |
| 20260505054255 | 8 | 126 | 1.6 | 4.8 | 0.00 | 0.15 | 0.00 | 94 | 1007.3 |
| 20260505054251 | 8 | 126 | 1.6 | 4.8 | 0.00 | 0.15 | 0.00 | 94 | 1007.2 |
| 20260505054029 | 8 | 126 | 1.6 | 4.8 | 0.00 | 0.15 | 0.00 | 94 | 1007.2 |
| 20260505053929 | 8 | 126 | 1.6 | 4.8 | 0.00 | 0.15 | 0.00 | 94 | 1007.2 |
| 20260505053829 | 8 | 126 | 1.6 | 4.8 | 0.00 | 0.15 | 0.00 | 94 | 1007.2 |
| 20260505053729 | 8 | 126 | 1.6 | 4.8 | 0.00 | 0.15 | 0.00 | 94 | 1007.2 |
| 20260505053629 | 8 | 126 | 1.6 | 4.8 | 0.00 | 0.15 | 0.00 | 94 | 1007.1 |
| 20260505053529 | 8 | 101 | 1.6 | 4.8 | 0.00 | 0.15 | 0.00 | 94 | 1007.1 |
| 20260505053500 | 8 | 99 | 0.0 | 3.2 | 0.00 | 0.15 | 0.00 | 94 | 1007.1 |
| 20260505053327 | 8 | 99 | 0.0 | 3.2 | 0.00 | 0.15 | 0.00 | 94 | 1007.1 |
| 20260505053226 | 8 | 99 | 0.0 | 3.2 | 0.00 | 0.15 | 0.00 | 94 | 1007.1 |
| 20260505053124 | 8 | 99 | 1.6 | 3.2 | 0.00 | 0.15 | 0.00 | 95 | 1007.1 |
| 20260505053023 | 8 | 99 | 1.6 | 4.8 | 0.00 | 0.15 | 0.00 | 94 | 1007.1 |
| 20260505052920 | 8 | 99 | 1.6 | 6.4 | 0.00 | 0.15 | 0.00 | 94 | 1007.1 |
| 20260505052821 | 8 | 99 | 1.6 | 6.4 | 0.00 | 0.15 | 0.00 | 95 | 1007.1 |
| 20260505052721 | 8 | 99 | 1.6 | 6.4 | 0.00 | 0.15 | 0.00 | 95 | 1007.1 |
| 20260505052619 | 8 | 98 | 1.6 | 6.4 | 0.00 | 0.15 | 0.00 | 95 | 1007.1 |
| 20260505052517 | 8 | 98 | 1.6 | 6.4 | 0.00 | 0.15 | 0.00 | 95 | 1007.1 |
| 20260505052411 | 8 | 98 | 1.6 | 6.4 | 0.00 | 0.15 | 0.00 | 95 | 1007.1 |
| 20260505052311 | 8 | 98 | 1.6 | 6.4 | 0.00 | 0.15 | 0.00 | 94 | 1007.1 |
| 20260505052211 | 8 | 98 | 1.6 | 6.4 | 0.00 | 0.15 | 0.00 | 94 | 1007.2 |
| 20260505052110 | 8 | 99 | 1.6 | 6.4 | 0.00 | 0.15 | 0.00 | 94 | 1007.2 |
| 20260505052037 | 8 | 99 | 0.0 | 6.4 | 0.00 | 0.15 | 0.00 | 94 | 1007.1 |
| 20260505052010 | 8 | 98 | 0.0 | 6.4 | 0.00 | 0.15 | 0.00 | 94 | 1007.1 |
| 20260505051907 | 7 | 78 | 0.0 | 3.2 | 0.00 | 0.15 | 0.00 | 94 | 1007.1 |
| 20260505051807 | 7 | 77 | 0.0 | 3.2 | 0.00 | 0.15 | 0.00 | 94 | 1007.1 |
| 20260505051803 | 7 | 77 | 0.0 | 3.2 | 0.00 | 0.15 | 0.00 | 94 | 1007.1 |
| 20260505051752 | 7 | 77 | 0.0 | 3.2 | 0.00 | 0.15 | 0.00 | 95 | 1007.1 |
| 20260505051748 | 7 | 77 | 0.0 | 3.2 | 0.00 | 0.15 | 0.00 | 94 | 1007.1 |
| 20260505051507 | 7 | 77 | 0.0 | 3.2 | 0.00 | 0.15 | 0.00 | 94 | 1007.1 |
| 20260505051400 | 7 | 77 | 0.0 | 3.2 | 0.00 | 0.15 | 0.00 | 94 | 1007.1 |
| 20260505051301 | 7 | 77 | 0.0 | 3.2 | 0.00 | 0.15 | 0.00 | 94 | 1007.1 |
| 20260505051201 | 7 | 77 | 0.0 | 3.2 | 0.00 | 0.15 | 0.00 | 94 | 1007.1 |
| 20260505051101 | 7 | 77 | 0.0 | 3.2 | 0.00 | 0.15 | 0.00 | 94 | 1007.1 |
| 20260505051036 | 7 | 77 | 1.6 | 3.2 | 0.00 | 0.15 | 0.00 | 94 | 1007.1 |
| 20260505051005 | 7 | 77 | 1.6 | 3.2 | 0.00 | 0.15 | 0.00 | 94 | 1007.1 |
| 20260505050901 | 7 | 77 | 1.6 | 3.2 | 0.00 | 0.15 | 0.00 | 94 | 1007.1 |
| 20260505050801 | 7 | 77 | 1.6 | 3.2 | 0.00 | 0.15 | 0.00 | 94 | 1007.2 |
| 20260505050755 | 7 | 77 | 0.0 | 3.2 | 0.00 | 0.15 | 0.00 | 94 | 1007.2 |
| 20260505050750 | 7 | 77 | 1.6 | 3.2 | 0.00 | 0.15 | 0.00 | 94 | 1007.2 |
| 20260505050746 | 7 | 77 | 0.0 | 3.2 | 0.00 | 0.15 | 0.00 | 94 | 1007.2 |
| 20260505050501 | 7 | 77 | 0.0 | 3.2 | 0.00 | 0.15 | 0.00 | 94 | 1007.2 |
| 20260505050401 | 7 | 77 | 0.0 | 3.2 | 0.00 | 0.15 | 0.00 | 94 | 1007.2 |
| 20260505050302 | 7 | 77 | 0.0 | 3.2 | 0.00 | 0.15 | 0.00 | 94 | 1007.2 |
| 20260505050258 | 7 | 67 | 0.0 | 3.2 | 0.00 | 0.15 | 0.00 | 93 | 1007.3 |
| 20260505050249 | 7 | 73 | 0.0 | 3.2 | 0.00 | 0.15 | 0.00 | 94 | 1007.2 |
| 20260505050245 | 7 | 71 | 0.0 | 3.2 | 0.00 | 0.15 | 0.00 | 93 | 1007.3 |
| 20260505041701 | 6 | 20 | 0.0 | 0.0 | 0.00 | 0.15 | 0.00 | 92 | 1007.4 |
| 20260505041601 | 6 | 20 | 0.0 | 0.0 | 0.00 | 0.15 | 0.00 | 92 | 1007.4 |
| 20260505041500 | 6 | 20 | 0.0 | 0.0 | 0.00 | 0.15 | 0.00 | 92 | 1007.4 |
| 20260505041400 | 6 | 20 | 0.0 | 0.0 | 0.00 | 0.15 | 0.00 | 92 | 1007.4 |
| 20260505041301 | 6 | 20 | 0.0 | 0.0 | 0.00 | 0.15 | 0.00 | 92 | 1007.4 |
| 20260505041202 | 6 | 20 | 0.0 | 0.0 | 0.00 | 0.15 | 0.00 | 92 | 1007.4 |
| 20260505041102 | 6 | 20 | 0.0 | 1.6 | 0.00 | 0.15 | 0.00 | 92 | 1007.4 |
| 20260505041000 | 6 | 20 | 0.0 | 1.6 | 0.00 | 0.15 | 0.00 | 92 | 1007.4 |
| 20260505040900 | 6 | 20 | 0.0 | 1.6 | 0.00 | 0.15 | 0.00 | 92 | 1007.5 |
| 20260505040758 | 6 | 20 | 0.0 | 1.6 | 0.00 | 0.15 | 0.00 | 92 | 1007.5 |
| 20260505040656 | 6 | 20 | 0.0 | 1.6 | 0.00 | 0.15 | 0.00 | 92 | 1007.5 |
| 20260505040528 | 6 | 20 | 0.0 | 1.6 | 0.00 | 0.15 | 0.00 | 92 | 1007.5 |
| 20260505040451 | 6 | 20 | 0.0 | 1.6 | 0.00 | 0.15 | 0.00 | 92 | 1007.6 |
| 20260505040351 | 6 | 20 | 0.0 | 1.6 | 0.00 | 0.15 | 0.00 | 92 | 1007.5 |
| 20260505040251 | 6 | 20 | 0.0 | 1.6 | 0.00 | 0.15 | 0.00 | 91 | 1007.5 |
| 20260505040150 | 6 | 20 | 0.0 | 1.6 | 0.00 | 0.15 | 0.00 | 91 | 1007.5 |
| 20260505040029 | 6 | 20 | 0.0 | 1.6 | 0.00 | 0.15 | 0.00 | 91 | 1007.5 |
| 20260505035951 | 6 | 20 | 0.0 | 1.6 | 0.00 | 0.15 | 0.00 | 91 | 1007.5 |
| 20260505035851 | 6 | 20 | 0.0 | 1.6 | 0.00 | 0.15 | 0.00 | 91 | 1007.5 |
| 20260505035749 | 6 | 20 | 0.0 | 1.6 | 0.00 | 0.15 | 0.00 | 91 | 1007.5 |
| 20260505035649 | 6 | 20 | 0.0 | 1.6 | 0.00 | 0.15 | 0.00 | 91 | 1007.5 |
| 20260505035529 | 6 | 20 | 0.0 | 1.6 | 0.00 | 0.15 | 0.00 | 91 | 1007.5 |
| 20260505035448 | 6 | 20 | 0.0 | 1.6 | 0.00 | 0.15 | 0.00 | 91 | 1007.5 |
| 20260505035346 | 6 | 20 | 0.0 | 1.6 | 0.00 | 0.15 | 0.00 | 91 | 1007.4 |
| 20260505035246 | 6 | 20 | 0.0 | 1.6 | 0.00 | 0.15 | 0.00 | 91 | 1007.4 |
| 20260505035144 | 6 | 20 | 0.0 | 1.6 | 0.00 | 0.15 | 0.00 | 91 | 1007.5 |
| 20260505035029 | 6 | 20 | 0.0 | 1.6 | 0.00 | 0.15 | 0.00 | 91 | 1007.4 |
| 20260505034945 | 6 | 20 | 0.0 | 1.6 | 0.00 | 0.15 | 0.00 | 91 | 1007.5 |
| 20260505034845 | 6 | 20 | 0.0 | 1.6 | 0.00 | 0.15 | 0.00 | 91 | 1007.5 |
| 20260505034745 | 6 | 20 | 0.0 | 1.6 | 0.00 | 0.15 | 0.00 | 90 | 1007.5 |
| 20260505034645 | 6 | 20 | 0.0 | 1.6 | 0.00 | 0.15 | 0.00 | 90 | 1007.5 |
| 20260505034528 | 6 | 20 | 0.0 | 1.6 | 0.00 | 0.15 | 0.00 | 90 | 1007.5 |
| 20260505034444 | 6 | 20 | 0.0 | 1.6 | 0.00 | 0.15 | 0.00 | 90 | 1007.5 |
| 20260505034344 | 6 | 20 | 0.0 | 1.6 | 0.00 | 0.15 | 0.00 | 90 | 1007.5 |
| 20260505034244 | 6 | 20 | 0.0 | 1.6 | 0.00 | 0.15 | 0.00 | 90 | 1007.5 |
| 20260505034145 | 6 | 20 | 0.0 | 1.6 | 0.00 | 0.15 | 0.00 | 90 | 1007.5 |
| 20260505034031 | 6 | 20 | 0.0 | 1.6 | 0.00 | 0.15 | 0.00 | 90 | 1007.5 |
| 20260505033944 | 6 | 20 | 0.0 | 1.6 | 0.00 | 0.15 | 0.00 | 90 | 1007.5 |
| 20260505033843 | 6 | 20 | 0.0 | 1.6 | 0.00 | 0.15 | 0.00 | 90 | 1007.5 |
| 20260505033743 | 6 | 20 | 0.0 | 1.6 | 0.00 | 0.15 | 0.00 | 90 | 1007.5 |
| 20260505033642 | 6 | 20 | 0.0 | 1.6 | 0.00 | 0.15 | 0.00 | 90 | 1007.5 |
| 20260505033530 | 6 | 20 | 0.0 | 1.6 | 0.00 | 0.15 | 0.00 | 90 | 1007.5 |
| 20260505033443 | 6 | 20 | 0.0 | 1.6 | 0.00 | 0.15 | 0.00 | 89 | 1007.5 |
| 20260505033342 | 6 | 20 | 0.0 | 1.6 | 0.00 | 0.15 | 0.00 | 89 | 1007.6 |
| 20260505033242 | 7 | 20 | 0.0 | 1.6 | 0.00 | 0.15 | 0.00 | 89 | 1007.6 |
| 20260505033143 | 7 | 20 | 0.0 | 1.6 | 0.00 | 0.15 | 0.00 | 89 | 1007.6 |
| 20260505033028 | 7 | 20 | 0.0 | 1.6 | 0.00 | 0.15 | 0.00 | 89 | 1007.6 |
| 20260505032943 | 7 | 20 | 0.0 | 1.6 | 0.00 | 0.15 | 0.00 | 89 | 1007.6 |
| 20260505032843 | 7 | 20 | 0.0 | 1.6 | 0.00 | 0.15 | 0.00 | 90 | 1007.6 |
| 20260505032742 | 7 | 20 | 0.0 | 1.6 | 0.00 | 0.15 | 0.00 | 90 | 1007.6 |
| 20260505032642 | 7 | 20 | 0.0 | 1.6 | 0.00 | 0.15 | 0.00 | 90 | 1007.6 |
| 20260505032529 | 7 | 20 | 0.0 | 1.6 | 0.00 | 0.15 | 0.00 | 90 | 1007.6 |
| 20260505032439 | 7 | 20 | 0.0 | 1.6 | 0.00 | 0.15 | 0.00 | 90 | 1007.6 |
| 20260505032338 | 7 | 20 | 0.0 | 1.6 | 0.00 | 0.15 | 0.00 | 90 | 1007.6 |
| 20260505032239 | 7 | 20 | 0.0 | 1.6 | 0.00 | 0.15 | 0.00 | 90 | 1007.6 |
| 20260505032139 | 7 | 20 | 0.0 | 1.6 | 0.00 | 0.15 | 0.00 | 90 | 1007.6 |
| 20260505032029 | 7 | 20 | 0.0 | 1.6 | 0.00 | 0.15 | 0.00 | 90 | 1007.6 |
| 20260505031938 | 7 | 20 | 0.0 | 1.6 | 0.00 | 0.15 | 0.00 | 90 | 1007.6 |
| 20260505031838 | 7 | 20 | 0.0 | 1.6 | 0.00 | 0.15 | 0.00 | 90 | 1007.6 |
| 20260505031739 | 7 | 20 | 0.0 | 1.6 | 0.00 | 0.15 | 0.00 | 90 | 1007.5 |
| 20260505031638 | 7 | 20 | 0.0 | 0.0 | 0.00 | 0.15 | 0.00 | 90 | 1007.6 |
| 20260505031529 | 7 | 20 | 0.0 | 0.0 | 0.00 | 0.15 | 0.00 | 90 | 1007.6 |
| 20260505031439 | 7 | 20 | 0.0 | 0.0 | 0.00 | 0.15 | 0.00 | 90 | 1007.6 |
| 20260505031338 | 7 | 20 | 0.0 | 1.6 | 0.00 | 0.15 | 0.00 | 90 | 1007.6 |
| 20260505031238 | 7 | 20 | 0.0 | 1.6 | 0.00 | 0.15 | 0.00 | 90 | 1007.6 |
| 20260505031139 | 7 | 20 | 0.0 | 1.6 | 0.00 | 0.15 | 0.00 | 90 | 1007.6 |
| 20260505031039 | 7 | 20 | 0.0 | 1.6 | 0.00 | 0.15 | 0.00 | 90 | 1007.6 |
| 20260505031029 | 7 | 20 | 0.0 | 1.6 | 0.00 | 0.15 | 0.00 | 90 | 1007.6 |
| 20260505030939 | 7 | 20 | 0.0 | 1.6 | 0.00 | 0.15 | 0.00 | 90 | 1007.6 |
| 20260505030843 | 7 | 20 | 0.0 | 1.6 | 0.00 | 0.15 | 0.00 | 90 | 1007.6 |
| 20260505030739 | 7 | 20 | 0.0 | 1.6 | 0.00 | 0.15 | 0.00 | 90 | 1007.7 |
| 20260505030638 | 7 | 20 | 0.0 | 1.6 | 0.00 | 0.15 | 0.00 | 90 | 1007.7 |
| 20260505030528 | 7 | 20 | 0.0 | 1.6 | 0.00 | 0.15 | 0.00 | 90 | 1007.7 |
| 20260505030434 | 7 | 20 | 0.0 | 1.6 | 0.00 | 0.15 | 0.00 | 90 | 1007.7 |
| 20260505030339 | 7 | 20 | 0.0 | 1.6 | 0.00 | 0.15 | 0.00 | 90 | 1007.7 |
| 20260505030235 | 7 | 20 | 0.0 | 0.0 | 0.00 | 0.15 | 0.00 | 90 | 1007.7 |
| 20260505030135 | 7 | 20 | 0.0 | 0.0 | 0.00 | 0.15 | 0.00 | 90 | 1007.7 |
| 20260505030028 | 7 | 20 | 0.0 | 0.0 | 0.00 | 0.15 | 0.00 | 90 | 1007.7 |
| 20260505025935 | 7 | 20 | 0.0 | 0.0 | 0.00 | 0.15 | 0.00 | 90 | 1007.7 |
| 20260505025835 | 7 | 20 | 0.0 | 1.6 | 0.00 | 0.15 | 0.00 | 90 | 1007.7 |
| 20260505025735 | 7 | 20 | 0.0 | 1.6 | 0.00 | 0.15 | 0.00 | 90 | 1007.7 |
| 20260505025635 | 7 | 20 | 0.0 | 1.6 | 0.00 | 0.15 | 0.00 | 90 | 1007.7 |
| 20260505025529 | 7 | 20 | 0.0 | 1.6 | 0.00 | 0.15 | 0.00 | 90 | 1007.7 |
| 20260505025434 | 7 | 20 | 0.0 | 1.6 | 0.00 | 0.15 | 0.00 | 90 | 1007.7 |
| 20260505025334 | 7 | 20 | 0.0 | 1.6 | 0.00 | 0.15 | 0.00 | 90 | 1007.7 |
| 20260505025248 | 7 | 20 | 0.0 | 1.6 | 0.00 | 0.15 | 0.00 | 90 | 1007.7 |
| 20260505025244 | 7 | 20 | 0.0 | 1.6 | 0.00 | 0.15 | 0.00 | 90 | 1007.8 |
| 20260505025240 | 7 | 20 | 0.0 | 1.6 | 0.00 | 0.15 | 0.00 | 90 | 1007.8 |